FW4770 Weather Reports


time (UTC)temp
C
wind
direction
speed
KPH
gust
KPH
rain 1hr
cm
rain 24hr
cm
rain mn
cm
humidity
%
barometer
mb
20260506153611 4 36 11.3 19.3 0.00 0.00 0.00 61 1017.4
20260506153513 4 26 12.9 19.3 0.00 0.00 0.00 60 1017.4
20260506153418 4 331 12.9 19.3 0.00 0.00 0.00 60 1017.4
20260506153339 4 345 11.3 20.9 0.00 0.00 0.00 61 1017.3
20260506153219 4 340 11.3 20.9 0.00 0.00 0.00 61 1017.4
20260506153141 4 343 11.3 22.5 0.00 0.00 0.00 61 1017.3
20260506153040 4 308 11.3 22.5 0.00 0.00 0.00 61 1017.4
20260506152920 4 298 14.5 22.5 0.00 0.00 0.00 60 1017.4
20260506152822 4 30 14.5 22.5 0.00 0.00 0.00 60 1017.4
20260506152708 4 355 14.5 22.5 0.00 0.00 0.00 61 1017.3
20260506152609 4 336 16.1 22.5 0.00 0.00 0.00 60 1017.4
20260506152509 4 360 16.1 22.5 0.00 0.00 0.00 60 1017.4
20260506152411 4 5 14.5 22.5 0.00 0.00 0.00 60 1017.4
20260506152313 4 360 11.3 22.5 0.00 0.00 0.00 61 1017.4
20260506152215 4 315 11.3 20.9 0.00 0.00 0.00 62 1017.3
20260506152121 4 309 11.3 20.9 0.00 0.00 0.00 61 1017.3
20260506152047 4 328 11.3 20.9 0.00 0.00 0.00 62 1017.3
20260506151927 4 360 11.3 22.5 0.00 0.00 0.00 61 1017.3
20260506151808 4 320 12.9 22.5 0.00 0.00 0.00 60 1017.3
20260506151710 4 19 14.5 22.5 0.00 0.00 0.00 60 1017.2
20260506151612 4 350 16.1 22.5 0.00 0.00 0.00 60 1017.2
20260506151514 4 344 16.1 22.5 0.00 0.00 0.00 60 1017.3
20260506151420 4 355 16.1 24.1 0.00 0.00 0.00 60 1017.3
20260506151321 4 355 16.1 24.1 0.00 0.00 0.00 60 1017.3
20260506151223 4 360 14.5 24.1 0.00 0.00 0.00 60 1017.4
20260506151125 4 32 14.5 24.1 0.00 0.00 0.00 60 1017.3
20260506151025 4 355 12.9 24.1 0.00 0.00 0.00 61 1017.4
20260506150926 4 30 12.9 24.1 0.00 0.00 0.00 61 1017.4
20260506150812 4 12 16.1 24.1 0.00 0.00 0.00 61 1017.4
20260506150713 4 24 16.1 24.1 0.00 0.00 0.00 61 1017.4
20260506150635 4 35 14.5 24.1 0.00 0.00 0.00 61 1017.4
20260506150556 4 5 9.7 20.9 0.00 0.00 0.00 61 1017.4
20260506150408 4 355 12.9 20.9 0.00 0.00 0.00 61 1017.4
20260506150310 4 338 14.5 20.9 0.00 0.00 0.00 60 1017.5
20260506150211 4 30 14.5 20.9 0.00 0.00 0.00 61 1017.5
20260506150115 4 355 16.1 20.9 0.00 0.00 0.00 61 1017.4
20260506150017 4 339 14.5 22.5 0.00 0.00 0.00 61 1017.3
20260506145918 4 315 12.9 22.5 0.00 0.00 0.00 61 1017.4
20260506145820 4 333 9.7 22.5 0.00 0.00 0.00 62 1017.4
20260506145740 4 304 9.7 22.5 0.00 0.00 0.00 62 1017.3
20260506145621 4 338 11.3 22.5 0.00 0.00 0.00 62 1017.4
20260506145522 4 345 12.9 22.5 0.00 0.00 0.00 61 1017.3
20260506145444 4 325 16.1 22.5 0.00 0.00 0.00 61 1017.3
20260506145326 4 319 14.5 22.5 0.00 0.00 0.00 61 1017.3
20260506145227 4 304 14.5 22.5 0.00 0.00 0.00 62 1017.4
20260506145127 4 323 8.0 19.3 0.00 0.00 0.00 63 1017.4
20260506145010 4 355 6.4 24.1 0.00 0.00 0.00 63 1017.4
20260506144915 4 288 6.4 27.4 0.00 0.00 0.00 63 1017.4
20260506144819 4 315 8.0 27.4 0.00 0.00 0.00 63 1017.3
20260506144723 4 306 8.0 27.4 0.00 0.00 0.00 62 1017.4
20260506144608 3 337 12.9 27.4 0.00 0.00 0.00 61 1017.4
20260506144508 3 338 14.5 27.4 0.00 0.00 0.00 61 1017.2
20260506144409 3 341 14.5 27.4 0.00 0.00 0.00 61 1017.4
20260506144310 3 320 14.5 27.4 0.00 0.00 0.00 61 1017.4
20260506144231 3 341 16.1 27.4 0.00 0.00 0.00 61 1017.4
20260506144112 4 360 16.1 27.4 0.00 0.00 0.00 62 1017.4
20260506144017 3 355 12.9 25.7 0.00 0.00 0.00 62 1017.4
20260506143939 3 5 9.7 25.7 0.00 0.00 0.00 63 1017.3
20260506143840 3 360 11.3 25.7 0.00 0.00 0.00 62 1017.3
20260506143719 3 11 12.9 25.7 0.00 0.00 0.00 61 1017.4
20260506143621 3 355 17.7 25.7 0.00 0.00 0.00 61 1017.4
20260506143542 3 45 14.5 25.7 0.00 0.00 0.00 61 1017.4
20260506143423 4 34 11.3 22.5 0.00 0.00 0.00 62 1017.4
20260506143324 4 30 11.3 22.5 0.00 0.00 0.00 62 1017.3
20260506143209 4 321 12.9 22.5 0.00 0.00 0.00 62 1017.2
20260506143111 4 5 12.9 22.5 0.00 0.00 0.00 62 1017.2
20260506143013 4 348 12.9 22.5 0.00 0.00 0.00 62 1017.2
20260506142934 4 344 14.5 22.5 0.00 0.00 0.00 63 1017.3
20260506142837 4 5 11.3 19.3 0.00 0.00 0.00 63 1017.2
20260506142720 4 23 11.3 20.9 0.00 0.00 0.00 63 1017.2
20260506142624 4 322 9.7 20.9 0.00 0.00 0.00 63 1017.2
20260506142512 4 22 11.3 20.9 0.00 0.00 0.00 63 1017.2
20260506142438 4 13 11.3 20.9 0.00 0.00 0.00 63 1017.1
20260506142340 4 319 9.7 20.9 0.00 0.00 0.00 64 1017.1
20260506142223 4 360 6.4 20.9 0.00 0.00 0.00 64 1017.1
20260506142107 4 313 6.4 20.9 0.00 0.00 0.00 64 1017.1
20260506142011 4 295 11.3 20.9 0.00 0.00 0.00 63 1017.2
20260506141915 4 346 11.3 20.9 0.00 0.00 0.00 63 1017.2
20260506141823 4 350 11.3 20.9 0.00 0.00 0.00 63 1017.2
20260506141707 3 13 11.3 20.9 0.00 0.00 0.00 63 1017.1
20260506141613 3 336 12.9 20.9 0.00 0.00 0.00 62 1017.1
20260506141515 3 355 11.3 20.9 0.00 0.00 0.00 62 1017.2
20260506141436 3 11 14.5 20.9 0.00 0.00 0.00 63 1017.2
20260506141319 3 28 16.1 20.9 0.00 0.00 0.00 62 1017.2
20260506141240 3 350 14.5 20.9 0.00 0.00 0.00 63 1017.2
20260506141106 3 12 12.9 20.9 0.00 0.00 0.00 64 1017.2
20260506141010 3 29 12.9 20.9 0.00 0.00 0.00 63 1017.1
20260506140914 3 344 14.5 20.9 0.00 0.00 0.00 63 1017.1
20260506140815 3 355 12.9 20.9 0.00 0.00 0.00 64 1017.2
20260506140716 3 350 12.9 20.9 0.00 0.00 0.00 64 1017.2
20260506140606 3 327 9.7 17.7 0.00 0.00 0.00 64 1017.1
20260506140511 3 28 8.0 19.3 0.00 0.00 0.00 65 1017.2
20260506140415 3 22 9.7 19.3 0.00 0.00 0.00 65 1017.2
20260506140320 3 11 11.3 20.9 0.00 0.00 0.00 64 1017.2
20260506140223 3 5 11.3 20.9 0.00 0.00 0.00 65 1017.1
20260506140108 3 360 12.9 20.9 0.00 0.00 0.00 64 1017.2
20260506140014 3 355 12.9 24.1 0.00 0.00 0.00 65 1017.1
20260506135920 3 20 9.7 24.1 0.00 0.00 0.00 65 1017.2
20260506135825 3 23 9.7 24.1 0.00 0.00 0.00 64 1017.2
20260506135727 3 346 12.9 24.1 0.00 0.00 0.00 65 1017.1
20260506135610 3 5 11.3 24.1 0.00 0.00 0.00 65 1017.1
20260506135512 3 339 9.7 24.1 0.00 0.00 0.00 66 1017.1
20260506135420 3 360 11.3 24.1 0.00 0.00 0.00 65 1017.1
20260506135321 3 13 14.5 24.1 0.00 0.00 0.00 65 1017.1
20260506135224 3 32 16.1 24.1 0.00 0.00 0.00 65 1017.1
20260506135106 3 360 12.9 20.9 0.00 0.00 0.00 67 1017.1
20260506135011 3 5 11.3 20.9 0.00 0.00 0.00 67 1017.0
20260506134916 3 355 12.9 20.9 0.00 0.00 0.00 68 1017.0
20260506134805 3 23 14.5 20.9 0.00 0.00 0.00 68 1017.1
20260506134729 2 335 12.9 20.9 0.00 0.00 0.00 69 1017.1
20260506134607 2 5 9.7 17.7 0.00 0.00 0.00 69 1017.0
20260506134513 2 32 9.7 17.7 0.00 0.00 0.00 69 1017.1
20260506134418 2 16 11.3 17.7 0.00 0.00 0.00 69 1017.0
20260506134323 2 314 12.9 17.7 0.00 0.00 0.00 69 1017.0
20260506134209 2 360 12.9 17.7 0.00 0.00 0.00 70 1017.0
20260506134134 2 5 9.7 19.3 0.00 0.00 0.00 70 1016.9
20260506134013 2 355 8.0 19.3 0.00 0.00 0.00 70 1017.0
20260506133914 2 32 8.0 19.3 0.00 0.00 0.00 71 1017.0
20260506133834 2 24 8.0 19.3 0.00 0.00 0.00 71 1017.0
20260506133708 2 19 8.0 19.3 0.00 0.00 0.00 70 1016.9
20260506133610 1 355 9.7 19.3 0.00 0.00 0.00 70 1017.0
20260506133534 1 332 9.7 19.3 0.00 0.00 0.00 70 1017.0
20260506133408 1 26 12.9 19.3 0.00 0.00 0.00 70 1016.9
20260506133312 1 360 11.3 19.3 0.00 0.00 0.00 70 1016.9
20260506133235 1 329 11.3 19.3 0.00 0.00 0.00 71 1016.9
20260506133115 1 355 8.0 16.1 0.00 0.00 0.00 71 1016.9
20260506133017 1 313 8.0 16.1 0.00 0.00 0.00 71 1016.9
20260506132920 1 340 6.4 16.1 0.00 0.00 0.00 71 1016.9
20260506132827 1 32 4.8 16.1 0.00 0.00 0.00 71 1016.9
20260506132751 1 315 6.4 16.1 0.00 0.00 0.00 71 1017.0
20260506132606 1 34 8.0 16.1 0.00 0.00 0.00 70 1017.0
20260506132531 1 38 6.4 16.1 0.00 0.00 0.00 70 1016.9
20260506132407 1 360 9.7 16.1 0.00 0.00 0.00 70 1016.9
20260506132310 1 355 9.7 16.1 0.00 0.00 0.00 70 1016.9
20260506132217 1 355 6.4 14.5 0.00 0.00 0.00 70 1016.9
20260506132140 1 355 4.8 12.9 0.00 0.00 0.00 70 1016.8
20260506132022 1 5 4.8 12.9 0.00 0.00 0.00 71 1016.8
20260506131926 1 360 6.4 12.9 0.00 0.00 0.00 71 1016.8
20260506131808 1 332 6.4 12.9 0.00 0.00 0.00 71 1016.7
20260506131710 1 339 6.4 12.9 0.00 0.00 0.00 71 1016.7
20260506131613 1 355 6.4 12.9 0.00 0.00 0.00 71 1016.7
20260506131520 1 323 8.0 12.9 0.00 0.00 0.00 71 1016.7
20260506131424 1 9 8.0 12.9 0.00 0.00 0.00 71 1016.6
20260506131327 1 342 6.4 12.9 0.00 0.00 0.00 71 1016.7
20260506131209 1 355 6.4 9.7 0.00 0.00 0.00 71 1016.6
20260506131112 1 321 6.4 9.7 0.00 0.00 0.00 71 1016.6
20260506131015 1 5 6.4 8.0 0.00 0.00 0.00 71 1016.6
20260506130918 1 5 4.8 8.0 0.00 0.00 0.00 71 1016.6
20260506130805 1 350 4.8 8.0 0.00 0.00 0.00 72 1016.6
20260506130709 1 11 4.8 8.0 0.00 0.00 0.00 71 1016.5
20260506130632 1 11 4.8 8.0 0.00 0.00 0.00 72 1016.5
20260506130507 1 24 3.2 8.0 0.00 0.00 0.00 72 1016.5
20260506130431 1 33 3.2 8.0 0.00 0.00 0.00 71 1016.5
20260506130313 1 32 4.8 8.0 0.00 0.00 0.00 71 1016.5
20260506130220 1 29 6.4 8.0 0.00 0.00 0.00 71 1016.5
20260506130123 1 32 4.8 8.0 0.00 0.00 0.00 72 1016.5
20260506130027 1 11 3.2 9.7 0.00 0.00 0.00 72 1016.4
20260506125910 1 10 3.2 12.9 0.00 0.00 0.00 72 1016.4
20260506125813 1 11 4.8 12.9 0.00 0.00 0.00 72 1016.4
20260506125717 1 342 4.8 12.9 0.00 0.00 0.00 72 1016.4
20260506125619 1 5 4.8 14.5 0.00 0.00 0.00 72 1016.4
20260506125506 1 360 4.8 14.5 0.00 0.00 0.00 72 1016.4
20260506125408 1 350 6.4 14.5 0.00 0.00 0.00 73 1016.4
20260506125312 1 5 6.4 14.5 0.00 0.00 0.00 72 1016.3
20260506125213 1 5 8.0 14.5 0.00 0.00 0.00 72 1016.4
20260506125116 1 325 8.0 14.5 0.00 0.00 0.00 72 1016.3
20260506125019 1 311 4.8 14.5 0.00 0.00 0.00 72 1016.3
20260506124906 1 5 6.4 14.5 0.00 0.00 0.00 73 1016.3
20260506124829 1 348 6.4 14.5 0.00 0.00 0.00 73 1016.3
20260506124705 1 320 4.8 9.7 0.00 0.00 0.00 73 1016.3
20260506124608 1 355 3.2 8.0 0.00 0.00 0.00 73 1016.3
20260506124532 1 331 4.8 14.5 0.00 0.00 0.00 73 1016.2
20260506124407 1 325 4.8 14.5 0.00 0.00 0.00 73 1016.3
20260506124314 1 311 4.8 14.5 0.00 0.00 0.00 73 1016.2
20260506124218 1 309 4.8 14.5 0.00 0.00 0.00 73 1016.3
20260506124141 1 299 3.2 14.5 0.00 0.00 0.00 73 1016.2
20260506124023 1 298 3.2 14.5 0.00 0.00 0.00 73 1016.1
20260506123908 1 350 4.8 14.5 0.00 0.00 0.00 73 1016.2
20260506123811 1 348 6.4 14.5 0.00 0.00 0.00 73 1016.2
20260506123715 1 345 6.4 14.5 0.00 0.00 0.00 73 1016.2
20260506123642 1 338 6.4 12.9 0.00 0.00 0.00 73 1016.1
20260506123524 1 317 6.4 12.9 0.00 0.00 0.00 74 1016.1
20260506123428 1 306 6.4 12.9 0.00 0.00 0.00 74 1016.1
20260506123352 1 315 4.8 12.9 0.00 0.00 0.00 74 1016.1
20260506123208 1 337 6.4 12.9 0.00 0.00 0.00 73 1016.1
20260506123112 1 313 6.4 12.9 0.00 0.00 0.00 73 1016.1
20260506123016 1 321 4.8 12.9 0.00 0.00 0.00 74 1016.1
20260506122924 1 337 4.8 9.7 0.00 0.00 0.00 74 1016.1
20260506122828 1 355 6.4 9.7 0.00 0.00 0.00 74 1016.2
20260506122752 1 5 4.8 9.7 0.00 0.00 0.00 74 1016.1
20260506122608 0 344 3.2 14.5 0.00 0.00 0.00 74 1016.1
20260506122532 0 343 4.8 14.5 0.00 0.00 0.00 74 1016.2
20260506122407 0 343 4.8 14.5 0.00 0.00 0.00 74 1016.1
20260506122310 0 355 6.4 14.5 0.00 0.00 0.00 74 1016.1
20260506122238 0 339 6.4 14.5 0.00 0.00 0.00 74 1016.1
20260506122121 0 301 6.4 16.1 0.00 0.00 0.00 74 1016.1
20260506122005 0 5 6.4 16.1 0.00 0.00 0.00 74 1016.1
20260506121909 0 346 8.0 16.1 0.00 0.00 0.00 74 1016.0
20260506121814 0 308 8.0 16.1 0.00 0.00 0.00 74 1016.1
20260506121738 0 325 6.4 16.1 0.00 0.00 0.00 74 1016.1
20260506121606 0 304 6.4 16.1 0.00 0.00 0.00 74 1016.0
20260506121530 0 334 8.0 16.1 0.00 0.00 0.00 74 1016.0
20260506121407 0 341 8.0 16.1 0.00 0.00 0.00 74 1016.0
20260506121331 0 322 6.4 14.5 0.00 0.00 0.00 74 1016.0
20260506121215 0 319 6.4 12.9 0.00 0.00 0.00 74 1016.0
20260506121119 0 339 6.4 12.9 0.00 0.00 0.00 74 1016.0
20260506121023 0 355 6.4 12.9 0.00 0.00 0.00 74 1015.9
20260506120930 0 325 6.4 12.9 0.00 0.00 0.00 74 1015.9
20260506120807 0 334 8.0 12.9 0.00 0.00 0.00 74 1015.9
20260506120731 0 319 6.4 12.9 0.00 0.00 0.00 75 1015.9
20260506120608 0 302 6.4 12.9 0.00 0.00 0.00 75 1015.9
20260506120513 0 308 6.4 12.9 0.00 0.00 0.00 74 1015.9
20260506120418 0 348 4.8 12.9 0.00 0.00 0.00 74 1015.9
20260506120305 0 341 4.8 12.9 0.00 0.00 0.00 74 1015.9
20260506120209 0 310 6.4 12.9 0.00 0.00 0.00 74 1015.8
20260506120113 0 309 8.0 12.9 0.00 0.00 0.00 74 1015.9
20260506120017 0 341 6.4 12.9 0.00 0.00 0.00 74 1015.8
20260506115919 0 316 4.8 9.7 0.00 0.00 0.00 75 1015.8
20260506115844 0 319 4.8 9.7 0.00 0.00 0.00 75 1015.8
20260506115712 0 316 4.8 12.9 0.00 0.00 0.00 75 1015.8
20260506115615 0 334 4.8 12.9 0.00 0.00 0.00 75 1015.8
20260506115520 0 349 6.4 12.9 0.00 0.00 0.00 75 1015.9
20260506115405 0 9 6.4 12.9 0.00 0.00 0.00 75 1015.8
20260506115329 0 305 4.8 12.9 0.00 0.00 0.00 75 1015.8
20260506115206 0 348 4.8 12.9 0.00 0.00 0.00 75 1015.8
20260506115115 0 325 4.8 12.9 0.00 0.00 0.00 75 1015.8
20260506115018 0 350 6.4 12.9 0.00 0.00 0.00 75 1015.8
20260506114923 0 302 6.4 12.9 0.00 0.00 0.00 75 1015.8
20260506114826 0 5 6.4 12.9 0.00 0.00 0.00 75 1015.7
20260506114730 0 344 6.4 12.9 0.00 0.00 0.00 75 1015.7
20260506114613 0 346 4.8 12.9 0.00 0.00 0.00 75 1015.7
20260506114516 0 338 3.2 12.9 0.00 0.00 0.00 75 1015.7
20260506114406 0 335 4.8 12.9 0.00 0.00 0.00 75 1015.6
20260506114329 0 315 4.8 12.9 0.00 0.00 0.00 75 1015.6
20260506114206 0 314 4.8 12.9 0.00 0.00 0.00 74 1015.6
20260506114111 0 320 6.4 12.9 0.00 0.00 0.00 74 1015.6
20260506114036 0 323 6.4 12.9 0.00 0.00 0.00 74 1015.6
20260506113918 0 342 8.0 12.9 0.00 0.00 0.00 74 1015.6
20260506113807 0 338 6.4 11.3 0.00 0.00 0.00 74 1015.6
20260506113732 0 338 4.8 9.7 0.00 0.00 0.00 75 1015.5
20260506113608 0 355 4.8 9.7 0.00 0.00 0.00 74 1015.6
20260506113511 0 302 4.8 14.5 0.00 0.00 0.00 74 1015.6
20260506113417 0 295 4.8 14.5 0.00 0.00 0.00 74 1015.6
20260506113321 0 299 6.4 14.5 0.00 0.00 0.00 74 1015.6
20260506113227 0 338 6.4 14.5 0.00 0.00 0.00 74 1015.6
20260506113113 0 313 6.4 14.5 0.00 0.00 0.00 74 1015.5
20260506113019 0 315 4.8 14.5 0.00 0.00 0.00 74 1015.5
20260506112923 0 5 6.4 14.5 0.00 0.00 0.00 74 1015.5
20260506112808 0 311 8.0 14.5 0.00 0.00 0.00 74 1015.6
20260506112712 0 316 8.0 14.5 0.00 0.00 0.00 74 1015.7
20260506112637 0 327 8.0 14.5 0.00 0.00 0.00 74 1015.6
20260506112523 0 323 6.4 12.9 0.00 0.00 0.00 75 1015.7
20260506112408 0 303 4.8 8.0 0.00 0.00 0.00 75 1015.6
20260506112313 0 304 4.8 8.0 0.00 0.00 0.00 75 1015.6
20260506112218 0 306 3.2 8.0 0.00 0.00 0.00 75 1015.6
20260506112142 0 306 3.2 8.0 0.00 0.00 0.00 75 1015.5
20260506112005 0 313 3.2 8.0 0.00 0.00 0.00 75 1015.6
20260506111930 0 314 3.2 8.0 0.00 0.00 0.00 75 1015.6
20260506111818 0 314 3.2 8.0 0.00 0.00 0.00 75 1015.6
20260506111721 0 341 4.8 8.0 0.00 0.00 0.00 75 1015.7
20260506111605 0 305 4.8 8.0 0.00 0.00 0.00 75 1015.6
20260506111529 0 306 4.8 8.0 0.00 0.00 0.00 75 1015.6
20260506111406 0 360 4.8 8.0 0.00 0.00 0.00 75 1015.7
20260506111309 0 299 4.8 8.0 0.00 0.00 0.00 75 1015.7
20260506111238 0 329 6.4 8.0 0.00 0.00 0.00 75 1015.6
20260506111120 0 304 6.4 8.0 0.00 0.00 0.00 75 1015.6
20260506111023 0 314 4.8 8.0 0.00 0.00 0.00 75 1015.6
20260506110906 0 312 4.8 8.0 0.00 0.00 0.00 75 1015.7
20260506110811 0 298 4.8 8.0 0.00 0.00 0.00 75 1015.6
20260506110737 0 337 4.8 8.0 0.00 0.00 0.00 75 1015.6
20260506110640 0 326 4.8 8.0 0.00 0.00 0.00 75 1015.6
20260506110506 0 355 4.8 8.0 0.00 0.00 0.00 75 1015.6
20260506110410 0 336 4.8 8.0 0.00 0.00 0.00 75 1015.6
20260506110315 0 326 4.8 9.7 0.00 0.00 0.00 76 1015.5
20260506110220 0 336 4.8 9.7 0.00 0.00 0.00 75 1015.6
20260506110145 0 328 4.8 9.7 0.00 0.00 0.00 75 1015.6
20260506110048 0 306 4.8 9.7 0.00 0.00 0.00 75 1015.5
20260506105952 0 307 4.8 9.7 0.00 0.00 0.00 75 1015.5
20260506105807 0 327 4.8 9.7 0.00 0.00 0.00 75 1015.4
20260506105716 0 318 3.2 9.7 0.00 0.00 0.00 75 1015.5
20260506105641 0 343 3.2 9.7 0.00 0.00 0.00 75 1015.5
20260506105544 0 346 4.8 9.7 0.00 0.00 0.00 75 1015.5
20260506105429 0 320 4.8 9.7 0.00 0.00 0.00 75 1015.5
20260506105306 0 355 4.8 8.0 0.00 0.00 0.00 75 1015.5
20260506105210 0 9 3.2 8.0 0.00 0.00 0.00 75 1015.4
20260506105115 0 5 4.8 8.0 0.00 0.00 0.00 75 1015.5
20260506105005 0 321 4.8 8.0 0.00 0.00 0.00 75 1015.4
20260506104929 0 326 4.8 8.0 0.00 0.00 0.00 75 1015.5
20260506104830 0 325 3.2 8.0 0.00 0.00 0.00 75 1015.5
20260506104707 0 323 4.8 8.0 0.00 0.00 0.00 76 1015.5
20260506104613 0 350 4.8 8.0 0.00 0.00 0.00 76 1015.4
20260506104535 0 337 4.8 8.0 0.00 0.00 0.00 76 1015.4
20260506104419 0 336 4.8 8.0 0.00 0.00 0.00 76 1015.4
20260506104308 0 308 4.8 8.0 0.00 0.00 0.00 76 1015.3
20260506104213 0 304 4.8 9.7 0.00 0.00 0.00 76 1015.4
20260506104137 0 302 4.8 9.7 0.00 0.00 0.00 76 1015.3
20260506104019 0 312 4.8 9.7 0.00 0.00 0.00 76 1015.2
20260506103923 0 340 3.2 9.7 0.00 0.00 0.00 76 1015.2
20260506103829 0 318 3.2 9.7 0.00 0.00 0.00 76 1015.2
20260506103716 0 342 3.2 9.7 0.00 0.00 0.00 76 1015.2
20260506103620 0 326 4.8 9.7 0.00 0.00 0.00 76 1015.1
20260506103525 0 350 6.4 9.7 0.00 0.00 0.00 76 1015.1
20260506103448 0 333 4.8 9.7 0.00 0.00 0.00 76 1015.0
20260506103352 0 328 3.2 8.0 0.00 0.00 0.00 76 1015.1
20260506103208 0 326 4.8 8.0 0.00 0.00 0.00 75 1015.0
20260506103133 0 327 4.8 8.0 0.00 0.00 0.00 76 1015.0
20260506103015 0 343 4.8 8.0 0.00 0.00 0.00 76 1015.0
20260506102924 0 328 6.4 8.0 0.00 0.00 0.00 76 1015.0
20260506102829 0 340 4.8 9.7 0.00 0.00 0.00 76 1014.9
20260506102705 0 346 3.2 9.7 0.00 0.00 0.00 76 1015.0
20260506102609 0 5 3.2 9.7 0.00 0.00 0.00 76 1015.0
20260506102516 0 344 3.2 9.7 0.00 0.00 0.00 76 1015.0
20260506102405 0 11 4.8 12.9 0.00 0.00 0.00 76 1015.0
20260506102310 0 346 4.8 12.9 0.00 0.00 0.00 76 1014.9
20260506102214 0 345 4.8 12.9 0.00 0.00 0.00 76 1014.9
20260506102121 0 360 6.4 12.9 0.00 0.00 0.00 76 1014.9
20260506102025 0 325 6.4 12.9 0.00 0.00 0.00 76 1015.0
20260506101930 0 323 4.8 12.9 0.00 0.00 0.00 76 1015.0
20260506101814 0 324 4.8 12.9 0.00 0.00 0.00 77 1015.0
20260506101704 0 355 4.8 12.9 0.00 0.00 0.00 77 1015.0
20260506101629 0 305 6.4 12.9 0.00 0.00 0.00 77 1015.0
20260506101533 0 321 4.8 8.0 0.00 0.00 0.00 77 1015.0
20260506101417 0 308 4.8 8.0 0.00 0.00 0.00 77 1015.0
20260506101343 0 338 4.8 8.0 0.00 0.00 0.00 77 1015.0
20260506101207 0 317 4.8 8.0 0.00 0.00 0.00 77 1015.0
20260506101110 0 350 4.8 8.0 0.00 0.00 0.00 77 1015.0
20260506101019 0 335 4.8 8.0 0.00 0.00 0.00 77 1015.0
20260506100922 0 360 3.2 8.0 0.00 0.00 0.00 77 1015.1
20260506100807 0 5 3.2 8.0 0.00 0.00 0.00 77 1015.0
20260506100710 0 13 4.8 8.0 0.00 0.00 0.00 77 1015.1
20260506100615 0 5 6.4 8.0 0.00 0.00 0.00 77 1015.0
20260506100519 0 17 6.4 9.7 0.00 0.00 0.00 77 1015.1
20260506100427 0 9 4.8 9.7 0.00 0.00 0.00 77 1015.1
20260506100352 0 44 4.8 9.7 0.00 0.00 0.00 77 1015.1
20260506100207 0 56 4.8 9.7 0.00 0.00 0.00 78 1015.0
20260506100110 0 57 4.8 9.7 0.00 0.00 0.00 78 1015.1
20260506100015 0 36 3.2 9.7 0.00 0.00 0.00 78 1015.1
20260506095917 0 17 3.2 9.7 0.00 0.00 0.00 78 1015.0
20260506095826 0 10 4.8 9.7 0.00 0.00 0.00 78 1015.1
20260506095751 0 5 4.8 9.7 0.00 0.00 0.00 79 1015.0
20260506095608 0 327 4.8 9.7 0.00 0.00 0.00 79 1015.0
20260506095532 0 348 6.4 9.7 0.00 0.00 0.00 79 1015.0
20260506095408 0 335 6.4 9.7 0.00 0.00 0.00 79 1015.0
20260506095313 0 5 4.8 9.7 0.00 0.00 0.00 79 1015.1
20260506095217 0 306 3.2 9.7 0.00 0.00 0.00 79 1015.1
20260506095124 0 306 3.2 9.7 0.00 0.00 0.00 80 1015.1
20260506095009 0 332 3.2 9.7 0.00 0.00 0.00 80 1015.0
20260506094913 0 9 4.8 9.7 0.00 0.00 0.00 80 1015.1
20260506094818 0 5 4.8 9.7 0.00 0.00 0.00 80 1015.1
20260506094721 0 5 4.8 6.4 0.00 0.00 0.00 80 1015.1
20260506094610 0 355 4.8 6.4 0.00 0.00 0.00 81 1015.1
20260506094514 0 336 3.2 6.4 0.00 0.00 0.00 81 1015.2
20260506094419 0 355 3.2 6.4 0.00 0.00 0.00 81 1015.1
20260506094323 0 340 3.2 6.4 0.00 0.00 0.00 81 1015.1
20260506094208 0 5 4.8 8.0 0.00 0.00 0.00 82 1015.2
20260506094112 0 360 4.8 8.0 0.00 0.00 0.00 82 1015.1
20260506094021 0 355 3.2 8.0 0.00 0.00 0.00 82 1015.1
20260506093905 0 315 3.2 12.9 0.00 0.00 0.00 83 1015.1
20260506093810 0 331 3.2 12.9 0.00 0.00 0.00 83 1015.1
20260506093714 0 335 3.2 12.9 0.00 0.00 0.00 83 1015.2
20260506093639 0 328 3.2 12.9 0.00 0.00 0.00 84 1015.1
20260506093519 0 329 4.8 12.9 0.00 0.00 0.00 84 1015.1
20260506093408 0 321 4.8 12.9 0.00 0.00 0.00 84 1015.2
20260506093312 0 323 4.8 12.9 0.00 0.00 0.00 84 1015.1
20260506093236 -1 311 4.8 12.9 0.00 0.00 0.00 85 1015.1
20260506093139 -1 346 4.8 12.9 0.00 0.00 0.00 85 1015.2
20260506093022 -1 335 3.2 8.0 0.00 0.00 0.00 85 1015.2
20260506092927 -1 351 3.2 8.0 0.00 0.00 0.00 85 1015.1
20260506092811 -1 355 4.8 8.0 0.00 0.00 0.00 86 1015.2
20260506092715 -1 351 4.8 8.0 0.00 0.00 0.00 86 1015.1
20260506092624 -1 340 4.8 8.0 0.00 0.00 0.00 86 1015.1
20260506092529 -1 343 3.2 8.0 0.00 0.00 0.00 86 1015.2
20260506092412 -1 9 4.8 8.0 0.00 0.00 0.00 87 1015.2
20260506092318 -1 329 4.8 8.0 0.00 0.00 0.00 87 1015.2
20260506092242 -1 360 4.8 8.0 0.00 0.00 0.00 87 1015.2
20260506092145 -1 330 4.8 8.0 0.00 0.00 0.00 87 1015.2
20260506092028 -1 316 4.8 6.4 0.00 0.00 0.00 87 1015.1
20260506091916 -1 311 4.8 6.4 0.00 0.00 0.00 87 1015.1
20260506091820 -2 297 4.8 6.4 0.00 0.00 0.00 87 1015.1
20260506091724 -2 306 4.8 6.4 0.00 0.00 0.00 87 1015.2
20260506091628 -2 301 4.8 6.4 0.00 0.00 0.00 87 1015.1
20260506091532 -2 301 4.8 6.4 0.00 0.00 0.00 87 1015.1
20260506091412 -2 306 4.8 6.4 0.00 0.00 0.00 87 1015.2
20260506091314 -2 310 3.2 6.4 0.00 0.00 0.00 87 1015.1
20260506091220 -2 320 3.2 6.4 0.00 0.00 0.00 87 1015.1
20260506091122 -2 321 3.2 6.4 0.00 0.00 0.00 87 1015.1
20260506091043 -2 313 3.2 6.4 0.00 0.00 0.00 87 1015.1
20260506090944 -2 313 3.2 6.4 0.00 0.00 0.00 87 1015.0
20260506090824 -2 313 3.2 6.4 0.00 0.00 0.00 86 1015.0
20260506090724 -2 302 3.2 6.4 0.00 0.00 0.00 86 1015.1
20260506090625 -2 302 3.2 4.8 0.00 0.00 0.00 86 1015.0
20260506090511 -2 302 3.2 4.8 0.00 0.00 0.00 86 1014.9
20260506090412 -2 302 3.2 4.8 0.00 0.00 0.00 86 1015.0
20260506090314 -2 303 3.2 4.8 0.00 0.00 0.00 87 1014.9
20260506090216 -2 302 3.2 4.8 0.00 0.00 0.00 87 1014.9
20260506090118 -2 321 1.6 3.2 0.00 0.00 0.00 87 1014.9
20260506090020 -2 344 1.6 3.2 0.00 0.00 0.00 87 1014.9
20260506085921 -2 344 1.6 3.2 0.00 0.00 0.00 87 1014.9
20260506085826 -2 344 1.6 3.2 0.00 0.00 0.00 87 1014.9
20260506085726 -2 344 1.6 3.2 0.00 0.00 0.00 87 1014.9
20260506085647 -2 344 0.0 3.2 0.00 0.00 0.00 87 1014.9
20260506085527 -2 344 0.0 3.2 0.00 0.00 0.00 87 1014.9
20260506085428 -2 344 0.0 4.8 0.00 0.00 0.00 87 1014.8
20260506085309 -2 343 1.6 6.4 0.00 0.00 0.00 87 1014.9
20260506085213 -2 343 1.6 6.4 0.00 0.00 0.00 87 1014.8
20260506085115 -2 343 1.6 6.4 0.00 0.00 0.00 87 1014.9
20260506085017 -2 344 1.6 6.4 0.00 0.00 0.00 87 1014.8
20260506084918 -2 344 1.6 6.4 0.00 0.00 0.00 87 1014.7
20260506084819 -2 344 1.6 6.4 0.00 0.00 0.00 87 1014.8
20260506084741 -2 344 1.6 6.4 0.00 0.00 0.00 87 1014.8
20260506084622 -2 344 1.6 6.4 0.00 0.00 0.00 87 1014.8
20260506084527 -2 341 3.2 6.4 0.00 0.00 0.00 87 1014.8
20260506084430 -2 299 1.6 4.8 0.00 0.00 0.00 87 1014.8
20260506084309 -2 299 1.6 4.8 0.00 0.00 0.00 87 1014.8
20260506084211 -2 299 1.6 4.8 0.00 0.00 0.00 87 1014.8
20260506084112 -2 299 3.2 4.8 0.00 0.00 0.00 87 1014.7
20260506084013 -2 299 3.2 4.8 0.00 0.00 0.00 87 1014.7
20260506083914 -2 299 3.2 4.8 0.00 0.00 0.00 87 1014.8
20260506083819 -2 299 3.2 4.8 0.00 0.00 0.00 87 1014.8
20260506083722 -2 298 3.2 4.8 0.00 0.00 0.00 87 1014.8
20260506083624 -2 298 3.2 4.8 0.00 0.00 0.00 87 1014.7
20260506083525 -2 298 3.2 4.8 0.00 0.00 0.00 87 1014.8
20260506083408 -2 298 3.2 4.8 0.00 0.00 0.00 87 1014.8
20260506083310 -2 298 3.2 4.8 0.00 0.00 0.00 87 1014.8
20260506083215 -2 297 3.2 4.8 0.00 0.00 0.00 87 1014.8
20260506083117 -2 297 3.2 4.8 0.00 0.00 0.00 87 1014.8
20260506083020 -2 297 3.2 4.8 0.00 0.00 0.00 87 1014.8
20260506082922 -2 297 3.2 6.4 0.00 0.00 0.00 87 1014.8
20260506082824 -2 297 3.2 6.4 0.00 0.00 0.00 87 1014.8
20260506082725 -2 297 3.2 6.4 0.00 0.00 0.00 87 1014.8
20260506082610 -2 297 3.2 6.4 0.00 0.00 0.00 86 1014.8
20260506082511 -2 298 3.2 6.4 0.00 0.00 0.00 86 1014.9
20260506082432 -2 298 3.2 6.4 0.00 0.00 0.00 86 1014.9
20260506082313 -2 298 4.8 6.4 0.00 0.00 0.00 86 1014.9
20260506082233 -2 298 3.2 6.4 0.00 0.00 0.00 86 1014.9
20260506082154 -2 300 4.8 6.4 0.00 0.00 0.00 86 1014.9
20260506082009 -2 300 3.2 6.4 0.00 0.00 0.00 86 1014.9
20260506081913 -2 289 3.2 4.8 0.00 0.00 0.00 86 1014.9
20260506081813 -2 289 3.2 4.8 0.00 0.00 0.00 86 1014.8
20260506081734 -2 289 1.6 4.8 0.00 0.00 0.00 86 1014.9
20260506081634 -2 289 1.6 4.8 0.00 0.00 0.00 86 1014.9
20260506081514 -2 289 3.2 4.8 0.00 0.00 0.00 86 1014.9
20260506081415 -2 289 3.2 4.8 0.00 0.00 0.00 86 1014.8
20260506081316 -2 289 3.2 4.8 0.00 0.00 0.00 86 1014.8
20260506081216 -2 26 3.2 3.2 0.00 0.00 0.00 86 1014.9
20260506081120 -2 26 3.2 3.2 0.00 0.00 0.00 86 1014.8
20260506081042 -2 26 3.2 3.2 0.00 0.00 0.00 85 1014.9
20260506080941 -2 26 1.6 3.2 0.00 0.00 0.00 85 1014.9
20260506080821 -2 26 1.6 1.6 0.00 0.00 0.00 85 1014.9
20260506080721 -2 26 1.6 1.6 0.00 0.00 0.00 85 1014.9
20260506080621 -2 26 0.0 1.6 0.00 0.00 0.00 85 1014.9
20260506080542 -2 26 0.0 0.0 0.00 0.00 0.00 85 1014.8
20260506080420 -2 26 0.0 0.0 0.00 0.00 0.00 85 1014.8
20260506080324 -2 26 0.0 0.0 0.00 0.00 0.00 85 1014.8
20260506080244 -2 26 0.0 0.0 0.00 0.00 0.00 85 1014.8
20260506080124 -2 26 0.0 0.0 0.00 0.00 0.00 85 1014.8
20260506073515 -2 26 0.0 1.6 0.00 0.00 0.00 84 1014.6
20260506073420 -2 26 0.0 1.6 0.00 0.00 0.00 84 1014.7
20260506073321 -2 26 0.0 1.6 0.00 0.00 0.00 84 1014.7
20260506073222 -2 26 0.0 1.6 0.00 0.00 0.00 84 1014.7
20260506073122 -2 26 0.0 1.6 0.00 0.00 0.00 84 1014.6
20260506073023 -1 26 0.0 1.6 0.00 0.00 0.00 84 1014.7
20260506072924 -1 26 0.0 1.6 0.00 0.00 0.00 84 1014.7
20260506072809 -1 26 0.0 3.2 0.00 0.00 0.00 84 1014.7
20260506072729 -1 26 0.0 3.2 0.00 0.00 0.00 84 1014.7
20260506072613 -1 26 0.0 3.2 0.00 0.00 0.00 84 1014.7
20260506072517 -1 26 1.6 3.2 0.00 0.00 0.00 84 1014.7
20260506072422 -1 26 1.6 3.2 0.00 0.00 0.00 84 1014.7
20260506072326 -1 26 1.6 3.2 0.00 0.00 0.00 84 1014.7
20260506072208 -1 26 1.6 3.2 0.00 0.00 0.00 84 1014.7
20260506072116 -1 26 1.6 3.2 0.00 0.00 0.00 84 1014.8
20260506072020 -1 26 1.6 3.2 0.00 0.00 0.00 84 1014.8
20260506071924 -1 26 1.6 3.2 0.00 0.00 0.00 84 1014.7
20260506071828 -1 26 1.6 3.2 0.00 0.00 0.00 84 1014.7
20260506071705 -1 26 1.6 3.2 0.00 0.00 0.00 84 1014.7
20260506071609 -1 26 1.6 3.2 0.00 0.00 0.00 84 1014.7
20260506071532 -1 26 1.6 3.2 0.00 0.00 0.00 84 1014.7
20260506071419 -1 26 1.6 3.2 0.00 0.00 0.00 84 1014.7
20260506071322 -1 26 1.6 3.2 0.00 0.00 0.00 84 1014.7
20260506071207 -1 26 3.2 4.8 0.00 0.00 0.00 84 1014.7
20260506071131 -1 26 3.2 4.8 0.00 0.00 0.00 84 1014.7
20260506071007 -1 26 1.6 4.8 0.00 0.00 0.00 84 1014.7
20260506070911 -1 26 1.6 4.8 0.00 0.00 0.00 84 1014.7
20260506070839 -1 26 3.2 4.8 0.00 0.00 0.00 84 1014.7
20260506070742 -1 26 3.2 4.8 0.00 0.00 0.00 84 1014.7
20260506070624 -1 26 3.2 4.8 0.00 0.00 0.00 84 1014.7
20260506070508 -1 26 3.2 4.8 0.00 0.00 0.00 83 1014.7
20260506070412 -1 26 3.2 4.8 0.00 0.00 0.00 83 1014.7
20260506070315 -1 27 3.2 3.2 0.00 0.00 0.00 83 1014.8
20260506070218 -1 27 3.2 3.2 0.00 0.00 0.00 83 1014.7
20260506070106 -1 27 1.6 3.2 0.00 0.00 0.00 83 1014.7
20260506062510 0 27 0.0 1.6 0.00 0.00 0.00 77 1014.8
20260506062415 0 27 0.0 1.6 0.00 0.00 0.00 77 1014.8
20260506062320 0 27 0.0 1.6 0.00 0.00 0.00 76 1014.8
20260506062221 0 27 0.0 1.6 0.00 0.00 0.00 76 1014.8
20260506062126 0 27 1.6 1.6 0.00 0.00 0.00 76 1014.9
20260506062027 0 27 1.6 1.6 0.00 0.00 0.00 76 1014.8
20260506061909 0 27 0.0 1.6 0.00 0.00 0.00 76 1014.8
20260506061812 0 27 0.0 1.6 0.00 0.00 0.00 75 1014.7
20260506061713 0 27 0.0 1.6 0.00 0.00 0.00 75 1014.9
20260506061615 0 27 0.0 1.6 0.00 0.00 0.00 75 1014.8
20260506061520 0 27 0.0 1.6 0.00 0.00 0.00 75 1014.8
20260506061424 0 27 0.0 1.6 0.00 0.00 0.00 75 1014.9
20260506061328 0 27 1.6 1.6 0.00 0.00 0.00 75 1014.8
20260506061211 0 27 1.6 3.2 0.00 0.00 0.00 75 1014.8
20260506061135 0 27 1.6 3.2 0.00 0.00 0.00 75 1014.8
20260506061037 0 27 1.6 3.2 0.00 0.00 0.00 75 1014.9
20260506060920 0 27 1.6 3.2 0.00 0.00 0.00 75 1014.8
20260506060810 0 27 1.6 3.2 0.00 0.00 0.00 75 1014.8
20260506060734 0 27 1.6 3.2 0.00 0.00 0.00 75 1014.8
20260506060619 0 27 1.6 3.2 0.00 0.00 0.00 74 1014.8
20260506060544 0 27 1.6 3.2 0.00 0.00 0.00 75 1014.8
20260506060408 0 27 1.6 3.2 0.00 0.00 0.00 74 1014.8
20260506060311 0 27 1.6 1.6 0.00 0.00 0.00 74 1014.8
20260506060215 0 27 1.6 1.6 0.00 0.00 0.00 74 1014.8
20260506060105 0 27 1.6 1.6 0.00 0.00 0.00 73 1014.7
20260506051408 2 20 3.2 6.4 0.00 0.00 0.00 67 1014.3
20260506051311 2 17 3.2 6.4 0.00 0.00 0.00 67 1014.3
20260506051233 2 17 3.2 6.4 0.00 0.00 0.00 67 1014.3
20260506051115 2 19 3.2 6.4 0.00 0.00 0.00 67 1014.2
20260506051022 2 28 3.2 8.0 0.00 0.00 0.00 67 1014.3
20260506050926 2 29 3.2 8.0 0.00 0.00 0.00 67 1014.3
20260506050829 2 23 4.8 8.0 0.00 0.00 0.00 67 1014.3
20260506050711 2 22 4.8 8.0 0.00 0.00 0.00 66 1014.2
20260506050617 2 17 3.2 8.0 0.00 0.00 0.00 67 1014.2
20260506050519 2 13 3.2 8.0 0.00 0.00 0.00 67 1014.1
20260506050407 2 16 3.2 8.0 0.00 0.00 0.00 67 1014.1
20260506050332 2 13 4.8 8.0 0.00 0.00 0.00 66 1014.1
20260506050214 2 17 4.8 8.0 0.00 0.00 0.00 66 1014.0
20260506050118 2 18 3.2 6.4 0.00 0.00 0.00 66 1014.1
20260506045114 2 24 3.2 6.4 0.00 0.00 0.00 66 1014.1
20260506045017 2 22 3.2 6.4 0.00 0.00 0.00 66 1014.0
20260506044905 2 22 3.2 6.4 0.00 0.00 0.00 66 1014.1
20260506044808 2 26 3.2 6.4 0.00 0.00 0.00 66 1014.0
20260506044711 2 27 3.2 6.4 0.00 0.00 0.00 66 1014.1
20260506044615 2 27 3.2 6.4 0.00 0.00 0.00 66 1014.0
20260506044518 2 27 3.2 6.4 0.00 0.00 0.00 65 1014.0
20260506044420 2 27 3.2 6.4 0.00 0.00 0.00 65 1014.0
20260506044307 2 28 3.2 6.4 0.00 0.00 0.00 65 1014.0
20260506044231 2 28 3.2 6.4 0.00 0.00 0.00 65 1014.0
20260506044106 2 28 3.2 6.4 0.00 0.00 0.00 65 1014.0
20260506044029 2 30 3.2 6.4 0.00 0.00 0.00 64 1014.0
20260506043931 2 28 3.2 6.4 0.00 0.00 0.00 64 1014.0
20260506043813 2 22 1.6 8.0 0.00 0.00 0.00 64 1014.0
20260506043716 2 22 3.2 8.0 0.00 0.00 0.00 64 1014.0
20260506043623 2 22 3.2 8.0 0.00 0.00 0.00 64 1014.0
20260506043527 2 22 3.2 8.0 0.00 0.00 0.00 64 1014.0
20260506043429 2 30 3.2 8.0 0.00 0.00 0.00 64 1014.1
20260506043312 2 30 3.2 8.0 0.00 0.00 0.00 64 1014.0
20260506043235 2 32 4.8 8.0 0.00 0.00 0.00 64 1014.0
20260506043117 3 34 4.8 8.0 0.00 0.00 0.00 64 1014.0
20260506043041 3 14 4.8 8.0 0.00 0.00 0.00 64 1014.0
20260506042907 3 19 4.8 8.0 0.00 0.00 0.00 64 1014.1
20260506042830 3 5 4.8 8.0 0.00 0.00 0.00 64 1014.0
20260506042706 3 30 3.2 9.7 0.00 0.00 0.00 64 1014.0
20260506042610 3 32 3.2 9.7 0.00 0.00 0.00 64 1014.0
20260506042511 3 38 3.2 9.7 0.00 0.00 0.00 64 1014.1
20260506042414 3 19 3.2 9.7 0.00 0.00 0.00 64 1014.1
20260506042338 3 35 3.2 9.7 0.00 0.00 0.00 64 1014.0
20260506042240 3 36 4.8 9.7 0.00 0.00 0.00 64 1013.9
20260506042126 3 13 4.8 9.7 0.00 0.00 0.00 63 1014.0
20260506042027 3 19 4.8 9.7 0.00 0.00 0.00 63 1014.1
20260506041908 3 317 6.4 9.7 0.00 0.00 0.00 63 1014.0
20260506041811 3 12 4.8 11.3 0.00 0.00 0.00 63 1014.1
20260506041715 3 15 4.8 11.3 0.00 0.00 0.00 62 1014.0
20260506041618 3 10 4.8 9.7 0.00 0.00 0.00 62 1014.0
20260506041505 3 9 4.8 11.3 0.00 0.00 0.00 62 1014.0
20260506041407 3 36 4.8 8.0 0.00 0.00 0.00 62 1014.0
20260506041331 3 23 4.8 8.0 0.00 0.00 0.00 62 1014.0
20260506041212 3 31 4.8 8.0 0.00 0.00 0.00 62 1014.0
20260506041115 3 46 4.8 8.0 0.00 0.00 0.00 61 1014.0
20260506041020 3 47 4.8 8.0 0.00 0.00 0.00 62 1013.9
20260506040905 3 49 6.4 8.0 0.00 0.00 0.00 62 1014.0
20260506040809 3 30 4.8 8.0 0.00 0.00 0.00 61 1014.0
20260506040710 3 40 4.8 8.0 0.00 0.00 0.00 61 1013.9
20260506040613 3 38 4.8 8.0 0.00 0.00 0.00 61 1013.9
20260506040517 3 40 4.8 8.0 0.00 0.00 0.00 61 1013.9
20260506040419 3 56 4.8 8.0 0.00 0.00 0.00 61 1013.9
20260506040322 3 40 4.8 8.0 0.00 0.00 0.00 60 1013.9
20260506040251 3 42 4.8 8.0 0.00 0.00 0.00 60 1013.9
20260506040106 3 22 4.8 9.7 0.00 0.00 0.00 60 1013.9
20260506040009 3 17 4.8 9.7 0.00 0.00 0.00 60 1013.8
20260506035913 3 39 3.2 9.7 0.00 0.00 0.00 61 1013.9
20260506035816 3 5 3.2 9.7 0.00 0.00 0.00 60 1013.9
20260506035718 3 36 3.2 9.7 0.00 0.00 0.00 60 1014.0
20260506035626 3 14 4.8 9.7 0.00 0.00 0.00 60 1013.9
20260506035508 3 5 6.4 9.7 0.00 0.00 0.00 60 1013.9
20260506035413 3 24 6.4 9.7 0.00 0.00 0.00 60 1013.9
20260506035315 3 348 4.8 9.7 0.00 0.00 0.00 60 1013.8
20260506035216 3 15 3.2 8.0 0.00 0.00 0.00 60 1013.8
20260506035119 3 18 3.2 12.9 0.00 0.00 0.00 60 1013.8
20260506035005 3 13 4.8 12.9 0.00 0.00 0.00 60 1013.8
20260506034930 3 13 4.8 12.9 0.00 0.00 0.00 60 1013.8
20260506034805 4 28 4.8 12.9 0.00 0.00 0.00 60 1013.8
20260506034731 4 355 4.8 12.9 0.00 0.00 0.00 60 1013.7
20260506034607 4 333 4.8 12.9 0.00 0.00 0.00 60 1013.8
20260506034511 4 342 4.8 12.9 0.00 0.00 0.00 60 1013.8
20260506034435 4 5 6.4 12.9 0.00 0.00 0.00 60 1013.7
20260506034321 4 14 8.0 12.9 0.00 0.00 0.00 60 1013.7
20260506034222 4 10 6.4 12.9 0.00 0.00 0.00 60 1013.7
20260506034142 4 355 4.8 12.9 0.00 0.00 0.00 60 1013.7
20260506034041 4 5 6.4 12.9 0.00 0.00 0.00 59 1013.6
20260506033923 4 9 6.4 12.9 0.00 0.00 0.00 60 1013.7
20260506033845 4 355 4.8 12.9 0.00 0.00 0.00 60 1013.7
20260506033744 4 17 4.8 12.9 0.00 0.00 0.00 59 1013.6
20260506033607 4 5 6.4 14.5 0.00 0.00 0.00 59 1013.6
20260506033513 4 360 8.0 14.5 0.00 0.00 0.00 59 1013.6
20260506033433 4 5 6.4 16.1 0.00 0.00 0.00 59 1013.5
20260506033312 4 5 4.8 16.1 0.00 0.00 0.00 59 1013.6
20260506033213 4 5 4.8 16.1 0.00 0.00 0.00 59 1013.5
20260506033113 4 19 4.8 16.1 0.00 0.00 0.00 59 1013.6
20260506033012 4 12 6.4 16.1 0.00 0.00 0.00 58 1013.6
20260506032933 4 5 6.4 16.1 0.00 0.00 0.00 59 1013.5
20260506032812 4 15 6.4 16.1 0.00 0.00 0.00 58 1013.5
20260506032718 4 22 8.0 16.1 0.00 0.00 0.00 58 1013.5
20260506032642 4 13 8.0 16.1 0.00 0.00 0.00 58 1013.5
20260506032505 4 9 6.4 14.5 0.00 0.00 0.00 58 1013.5
20260506032408 4 30 6.4 14.5 0.00 0.00 0.00 58 1013.5
20260506032311 4 344 8.0 16.1 0.00 0.00 0.00 58 1013.7
20260506032212 5 14 8.0 16.1 0.00 0.00 0.00 58 1013.6
20260506032115 5 11 8.0 16.1 0.00 0.00 0.00 58 1013.6
20260506032033 5 355 6.4 16.1 0.00 0.00 0.00 58 1013.5
20260506031935 5 351 6.4 16.1 0.00 0.00 0.00 58 1013.5
20260506031807 5 5 6.4 16.1 0.00 0.00 0.00 58 1013.6
20260506031728 5 5 6.4 16.1 0.00 0.00 0.00 58 1013.5
20260506031649 5 355 8.0 16.1 0.00 0.00 0.00 57 1013.5
20260506031550 5 18 9.7 16.1 0.00 0.00 0.00 57 1013.4
20260506031404 5 346 8.0 16.1 0.00 0.00 0.00 57 1013.5
20260506031312 5 20 8.0 16.1 0.00 0.00 0.00 57 1013.4
20260506031214 5 339 9.7 17.7 0.00 0.00 0.00 57 1013.4
20260506031114 5 5 9.7 17.7 0.00 0.00 0.00 57 1013.4
20260506031035 5 11 8.0 20.9 0.00 0.00 0.00 57 1013.4
20260506030914 5 9 8.0 20.9 0.00 0.00 0.00 57 1013.4
20260506030834 5 332 8.0 20.9 0.00 0.00 0.00 57 1013.5
20260506030754 5 5 8.0 20.9 0.00 0.00 0.00 57 1013.4
20260506030605 5 360 9.7 20.9 0.00 0.00 0.00 56 1013.5
20260506030513 5 331 9.7 20.9 0.00 0.00 0.00 56 1013.5
20260506030415 5 343 8.0 20.9 0.00 0.00 0.00 57 1013.4
20260506030316 5 12 9.7 20.9 0.00 0.00 0.00 57 1013.5
20260506030216 5 16 11.3 20.9 0.00 0.00 0.00 56 1013.5
20260506030119 5 355 9.7 19.3 0.00 0.00 0.00 56 1013.4
20260506030045 5 308 9.7 19.3 0.00 0.00 0.00 56 1013.5
20260506025910 5 355 9.7 19.3 0.00 0.00 0.00 57 1013.5
20260506025811 5 340 8.0 19.3 0.00 0.00 0.00 56 1013.4
20260506025715 5 19 9.7 19.3 0.00 0.00 0.00 56 1013.4
20260506025616 5 5 11.3 19.3 0.00 0.00 0.00 56 1013.6
20260506025515 5 5 11.3 19.3 0.00 0.00 0.00 57 1013.5
20260506025416 5 5 9.7 19.3 0.00 0.00 0.00 56 1013.5
20260506025337 5 345 12.9 19.3 0.00 0.00 0.00 56 1013.4
20260506025234 5 9 14.5 19.3 0.00 0.00 0.00 56 1013.4
20260506025117 5 5 11.3 19.3 0.00 0.00 0.00 56 1013.4
20260506025018 5 360 9.7 19.3 0.00 0.00 0.00 57 1013.4
20260506024919 5 16 11.3 20.9 0.00 0.00 0.00 57 1013.4
20260506024818 5 11 9.7 20.9 0.00 0.00 0.00 57 1013.4
20260506024719 5 355 8.0 24.1 0.00 0.00 0.00 56 1013.4
20260506024617 5 24 9.7 24.1 0.00 0.00 0.00 57 1013.4
20260506024537 5 11 11.3 24.1 0.00 0.00 0.00 57 1013.4
20260506024421 5 355 11.3 24.1 0.00 0.00 0.00 57 1013.3
20260506024322 5 22 11.3 24.1 0.00 0.00 0.00 56 1013.3
20260506024221 5 5 12.9 24.1 0.00 0.00 0.00 56 1013.4
20260506024123 5 355 16.1 24.1 0.00 0.00 0.00 57 1013.4
20260506024021 5 344 14.5 24.1 0.00 0.00 0.00 57 1013.3
20260506023922 5 343 9.7 20.9 0.00 0.00 0.00 56 1013.3
20260506023823 5 17 11.3 17.7 0.00 0.00 0.00 56 1013.2
20260506023707 5 9 12.9 17.7 0.00 0.00 0.00 56 1013.3
20260506023608 5 350 11.3 17.7 0.00 0.00 0.00 57 1013.2
20260506023510 5 5 9.7 17.7 0.00 0.00 0.00 56 1013.2
20260506023411 5 338 6.4 17.7 0.00 0.00 0.00 56 1013.2
20260506023313 5 344 6.4 17.7 0.00 0.00 0.00 57 1013.2
20260506023215 5 9 6.4 17.7 0.00 0.00 0.00 57 1013.1
20260506023122 5 13 8.0 17.7 0.00 0.00 0.00 56 1013.2
20260506023023 5 11 8.0 17.7 0.00 0.00 0.00 56 1013.1
20260506022925 5 336 9.7 17.7 0.00 0.00 0.00 56 1013.1
20260506022824 5 360 11.3 17.7 0.00 0.00 0.00 56 1013.1
20260506022725 5 15 9.7 17.7 0.00 0.00 0.00 56 1013.1
20260506022626 5 360 9.7 17.7 0.00 0.00 0.00 56 1013.1
20260506022512 5 344 9.7 17.7 0.00 0.00 0.00 57 1013.1
20260506022412 5 350 9.7 20.9 0.00 0.00 0.00 56 1013.1
20260506022312 5 330 11.3 20.9 0.00 0.00 0.00 56 1013.1
20260506022213 5 355 11.3 20.9 0.00 0.00 0.00 56 1013.1
20260506022134 5 12 11.3 20.9 0.00 0.00 0.00 56 1013.0
20260506022015 5 5 9.7 20.9 0.00 0.00 0.00 56 1013.0
20260506021918 6 26 6.4 20.9 0.00 0.00 0.00 56 1013.0
20260506021806 6 44 6.4 20.9 0.00 0.00 0.00 56 1013.0
20260506021710 6 355 9.7 20.9 0.00 0.00 0.00 56 1012.9
20260506021633 6 16 11.3 20.9 0.00 0.00 0.00 56 1012.9
20260506021515 6 351 11.3 20.9 0.00 0.00 0.00 55 1013.0
20260506021417 6 15 11.3 20.9 0.00 0.00 0.00 55 1012.8
20260506021316 6 19 11.3 20.9 0.00 0.00 0.00 55 1012.8
20260506021221 6 27 11.3 25.7 0.00 0.00 0.00 55 1012.8
20260506021119 6 14 9.7 25.7 0.00 0.00 0.00 55 1012.8
20260506021024 6 9 9.7 25.7 0.00 0.00 0.00 55 1012.7
20260506020928 6 360 12.9 25.7 0.00 0.00 0.00 55 1012.8
20260506020810 6 329 14.5 25.7 0.00 0.00 0.00 55 1012.7
20260506020714 6 360 12.9 29.0 0.00 0.00 0.00 55 1012.8
20260506020619 6 360 12.9 29.0 0.00 0.00 0.00 55 1012.7
20260506020506 6 17 14.5 30.6 0.00 0.00 0.00 55 1012.8
20260506020431 6 5 12.9 30.6 0.00 0.00 0.00 55 1012.7
20260506020306 6 33 12.9 30.6 0.00 0.00 0.00 55 1012.7
20260506020211 6 40 14.5 30.6 0.00 0.00 0.00 55 1012.6
20260506020116 6 15 17.7 30.6 0.00 0.00 0.00 55 1012.6
20260506020018 6 47 16.1 30.6 0.00 0.00 0.00 55 1012.6
20260506015906 6 346 12.9 30.6 0.00 0.00 0.00 55 1012.6
20260506015831 6 360 16.1 30.6 0.00 0.00 0.00 55 1012.7
20260506015707 6 351 17.7 30.6 0.00 0.00 0.00 55 1012.6
20260506015612 6 347 11.3 29.0 0.00 0.00 0.00 56 1012.5
20260506015536 6 14 9.7 19.3 0.00 0.00 0.00 56 1012.6
20260506015419 6 355 8.0 19.3 0.00 0.00 0.00 56 1012.5
20260506015328 6 17 8.0 14.5 0.00 0.00 0.00 57 1012.6
20260506015252 6 323 8.0 14.5 0.00 0.00 0.00 56 1012.5
20260506015108 6 16 4.8 9.7 0.00 0.00 0.00 56 1012.5
20260506015012 6 14 4.8 9.7 0.00 0.00 0.00 56 1012.4
20260506014917 6 13 4.8 9.7 0.00 0.00 0.00 55 1012.4
20260506014821 6 12 4.8 9.7 0.00 0.00 0.00 55 1012.3
20260506014710 6 10 4.8 12.9 0.00 0.00 0.00 55 1012.3
20260506014614 6 18 4.8 12.9 0.00 0.00 0.00 55 1012.3
20260506014519 6 5 6.4 12.9 0.00 0.00 0.00 55 1012.4
20260506014423 6 355 8.0 14.5 0.00 0.00 0.00 55 1012.4
20260506014327 6 11 6.4 14.5 0.00 0.00 0.00 54 1012.3
20260506014231 6 350 6.4 14.5 0.00 0.00 0.00 55 1012.4
20260506014107 6 15 4.8 14.5 0.00 0.00 0.00 54 1012.4
20260506014016 6 15 6.4 14.5 0.00 0.00 0.00 54 1012.3
20260506013939 6 12 8.0 14.5 0.00 0.00 0.00 54 1012.4
20260506013824 6 15 8.0 19.3 0.00 0.00 0.00 54 1012.3
20260506013728 6 5 8.0 19.3 0.00 0.00 0.00 54 1012.3
20260506013610 6 360 8.0 19.3 0.00 0.00 0.00 54 1012.3
20260506013535 6 20 6.4 19.3 0.00 0.00 0.00 54 1012.3
20260506013417 6 355 6.4 19.3 0.00 0.00 0.00 53 1012.2
20260506013320 6 39 6.4 19.3 0.00 0.00 0.00 53 1012.3
20260506013229 6 18 6.4 19.3 0.00 0.00 0.00 53 1012.2
20260506013105 6 47 9.7 19.3 0.00 0.00 0.00 53 1012.2
20260506013008 6 355 9.7 20.9 0.00 0.00 0.00 53 1012.2
20260506012911 7 16 6.4 20.9 0.00 0.00 0.00 53 1012.2
20260506012815 7 344 8.0 20.9 0.00 0.00 0.00 53 1012.2
20260506012738 7 52 8.0 20.9 0.00 0.00 0.00 53 1012.1
20260506012619 7 19 8.0 20.9 0.00 0.00 0.00 53 1012.2
20260506012507 7 15 8.0 20.9 0.00 0.00 0.00 52 1012.2
20260506012430 7 21 8.0 20.9 0.00 0.00 0.00 52 1012.2
20260506012308 7 40 12.9 20.9 0.00 0.00 0.00 52 1012.2
20260506012229 7 20 12.9 20.9 0.00 0.00 0.00 52 1012.1
20260506012111 7 355 9.7 20.9 0.00 0.00 0.00 52 1012.2
20260506012034 7 14 9.7 20.9 0.00 0.00 0.00 51 1012.2
20260506011936 7 33 11.3 22.5 0.00 0.00 0.00 51 1012.2
20260506011839 7 23 11.3 27.4 0.00 0.00 0.00 51 1012.1
20260506011724 7 5 9.7 29.0 0.00 0.00 0.00 51 1012.2
20260506011629 7 9 11.3 29.0 0.00 0.00 0.00 51 1012.1
20260506011510 7 17 11.3 29.0 0.00 0.00 0.00 51 1012.1
20260506011433 7 12 14.5 29.0 0.00 0.00 0.00 51 1012.1
20260506011315 7 9 14.5 29.0 0.00 0.00 0.00 51 1012.1
20260506011218 7 13 16.1 29.0 0.00 0.00 0.00 51 1012.2
20260506011105 7 23 19.3 29.0 0.00 0.00 0.00 51 1012.1
20260506011008 7 349 19.3 29.0 0.00 0.00 0.00 50 1012.0
20260506010932 7 360 19.3 29.0 0.00 0.00 0.00 50 1012.0
20260506010814 7 360 17.7 27.4 0.00 0.00 0.00 51 1012.1
20260506010717 7 355 14.5 27.4 0.00 0.00 0.00 50 1012.1
20260506010619 7 34 12.9 27.4 0.00 0.00 0.00 50 1012.0
20260506010522 7 5 12.9 27.4 0.00 0.00 0.00 50 1012.1
20260506010410 7 355 14.5 27.4 0.00 0.00 0.00 50 1012.0
20260506010313 7 5 16.1 27.4 0.00 0.00 0.00 50 1012.1
20260506010216 7 346 17.7 27.4 0.00 0.00 0.00 50 1012.0
20260506010122 7 360 17.7 27.4 0.00 0.00 0.00 50 1011.9
20260506010045 7 355 16.1 24.1 0.00 0.00 0.00 50 1012.0
20260506005927 7 331 14.5 24.1 0.00 0.00 0.00 50 1012.0
20260506005810 7 344 11.3 24.1 0.00 0.00 0.00 50 1012.0
20260506005718 7 5 12.9 24.1 0.00 0.00 0.00 50 1011.9
20260506005622 7 21 12.9 24.1 0.00 0.00 0.00 51 1011.8
20260506005507 7 348 11.3 24.1 0.00 0.00 0.00 51 1011.9
20260506005430 7 346 11.3 24.1 0.00 0.00 0.00 50 1011.9
20260506005308 7 319 14.5 24.1 0.00 0.00 0.00 50 1011.8
20260506005212 7 355 16.1 25.7 0.00 0.00 0.00 50 1011.8
20260506005119 7 355 12.9 25.7 0.00 0.00 0.00 50 1011.8
20260506005023 7 5 12.9 25.7 0.00 0.00 0.00 50 1011.8
20260506004928 7 5 11.3 25.7 0.00 0.00 0.00 50 1011.7
20260506004831 7 355 11.3 25.7 0.00 0.00 0.00 50 1011.8
20260506004708 8 37 11.3 25.7 0.00 0.00 0.00 50 1011.7
20260506004612 8 355 14.5 25.7 0.00 0.00 0.00 51 1011.8
20260506004520 8 344 14.5 25.7 0.00 0.00 0.00 50 1011.7
20260506004445 8 360 12.9 25.7 0.00 0.00 0.00 50 1011.7
20260506004328 8 44 12.9 25.7 0.00 0.00 0.00 50 1011.7
20260506004205 8 360 11.3 25.7 0.00 0.00 0.00 50 1011.7
20260506004129 8 28 11.3 25.7 0.00 0.00 0.00 50 1011.7
20260506004013 8 13 14.5 25.7 0.00 0.00 0.00 49 1011.7
20260506003917 8 355 12.9 25.7 0.00 0.00 0.00 50 1011.6
20260506003825 8 36 12.9 25.7 0.00 0.00 0.00 50 1011.6
20260506003728 8 9 11.3 19.3 0.00 0.00 0.00 49 1011.6
20260506003651 8 30 11.3 25.7 0.00 0.00 0.00 49 1011.6
20260506003505 8 360 9.7 25.7 0.00 0.00 0.00 49 1011.6
20260506003410 8 19 9.7 29.0 0.00 0.00 0.00 49 1011.6
20260506003315 8 28 9.7 29.0 0.00 0.00 0.00 50 1011.6
20260506003220 8 355 11.3 29.0 0.00 0.00 0.00 49 1011.6
20260506003128 8 360 12.9 29.0 0.00 0.00 0.00 49 1011.6
20260506003005 8 24 11.3 29.0 0.00 0.00 0.00 49 1011.6
20260506002929 8 355 12.9 29.0 0.00 0.00 0.00 48 1011.6
20260506002813 8 355 12.9 29.0 0.00 0.00 0.00 49 1011.6
20260506002716 8 355 16.1 29.0 0.00 0.00 0.00 48 1011.7
20260506002621 8 349 19.3 29.0 0.00 0.00 0.00 48 1011.6
20260506002529 8 61 17.7 24.1 0.00 0.00 0.00 48 1011.6
20260506002406 8 20 14.5 24.1 0.00 0.00 0.00 48 1011.6
20260506002330 8 346 12.9 22.5 0.00 0.00 0.00 49 1011.5
20260506002208 8 13 12.9 22.5 0.00 0.00 0.00 49 1011.5
20260506002112 8 334 14.5 22.5 0.00 0.00 0.00 49 1011.4
20260506002016 8 348 12.9 22.5 0.00 0.00 0.00 49 1011.4
20260506001925 8 34 11.3 22.5 0.00 0.00 0.00 49 1011.4
20260506001809 8 49 11.3 20.9 0.00 0.00 0.00 49 1011.4
20260506001712 8 44 11.3 20.9 0.00 0.00 0.00 48 1011.4
20260506001637 8 328 12.9 20.9 0.00 0.00 0.00 49 1011.4
20260506001519 8 15 12.9 20.9 0.00 0.00 0.00 49 1011.4
20260506001423 8 355 12.9 20.9 0.00 0.00 0.00 48 1011.4
20260506001311 8 360 11.3 20.9 0.00 0.00 0.00 48 1011.4
20260506001215 8 5 12.9 20.9 0.00 0.00 0.00 48 1011.5
20260506001120 8 10 14.5 20.9 0.00 0.00 0.00 48 1011.4
20260506001005 8 323 9.7 20.9 0.00 0.00 0.00 48 1011.4
20260506000910 8 347 8.0 20.9 0.00 0.00 0.00 49 1011.3
20260506000815 8 27 8.0 20.9 0.00 0.00 0.00 48 1011.4
20260506000722 8 355 8.0 20.9 0.00 0.00 0.00 48 1011.4
20260506000607 8 350 11.3 22.5 0.00 0.00 0.00 48 1011.3
20260506000511 8 355 12.9 22.5 0.00 0.00 0.00 47 1011.4
20260506000416 8 294 12.9 24.1 0.00 0.00 0.00 48 1011.4
20260506000320 8 5 11.3 24.1 0.00 0.00 0.00 48 1011.4
20260506000223 8 355 11.3 24.1 0.00 0.00 0.00 46 1011.3
20260506000110 9 338 14.5 24.1 0.00 0.00 0.00 47 1011.4
20260506000015 9 333 14.5 25.7 0.00 0.00 0.00 47 1011.3
20260505235939 9 9 16.1 25.7 0.00 0.00 0.00 47 1011.3
20260505235824 9 355 16.1 25.7 0.00 0.00 0.00 47 1011.3
20260505235709 9 349 16.1 25.7 0.00 0.00 0.00 46 1011.3
20260505235614 9 5 16.1 25.7 0.00 0.00 0.00 46 1011.3
20260505235520 9 329 12.9 25.7 0.00 0.00 0.00 47 1011.3
20260505235409 9 355 12.9 25.7 0.00 0.00 0.00 47 1011.3
20260505235313 9 321 17.7 25.7 0.00 0.00 0.00 47 1011.3
20260505235218 9 350 20.9 27.4 0.00 0.00 0.00 46 1011.3
20260505235122 9 355 17.7 27.4 0.00 0.00 0.00 47 1011.3
20260505235026 9 338 14.5 27.4 0.00 0.00 0.00 47 1011.3
20260505234928 9 332 16.1 27.4 0.00 0.00 0.00 46 1011.2
20260505234815 9 344 16.1 27.4 0.00 0.00 0.00 47 1011.2
20260505234717 9 9 14.5 27.4 0.00 0.00 0.00 47 1011.2
20260505234622 9 347 12.9 27.4 0.00 0.00 0.00 47 1011.2
20260505234507 9 360 16.1 27.4 0.00 0.00 0.00 45 1011.2
20260505234431 9 350 17.7 27.4 0.00 0.00 0.00 45 1011.2
20260505234307 9 349 16.1 22.5 0.00 0.00 0.00 45 1011.2
20260505234216 9 19 12.9 22.5 0.00 0.00 0.00 45 1011.2
20260505234120 9 5 11.3 20.9 0.00 0.00 0.00 45 1011.2
20260505234024 9 348 9.7 20.9 0.00 0.00 0.00 46 1011.2
20260505233908 10 360 11.3 27.4 0.00 0.00 0.00 46 1011.2
20260505233813 10 344 12.9 27.4 0.00 0.00 0.00 45 1011.1
20260505233716 10 309 12.9 27.4 0.00 0.00 0.00 45 1011.1
20260505233624 10 336 12.9 27.4 0.00 0.00 0.00 45 1011.2
20260505233526 10 317 12.9 27.4 0.00 0.00 0.00 44 1011.1
20260505233409 10 329 11.3 27.4 0.00 0.00 0.00 45 1011.1
20260505233312 10 304 14.5 27.4 0.00 0.00 0.00 44 1011.2
20260505233216 10 338 16.1 27.4 0.00 0.00 0.00 43 1011.1
20260505233118 10 333 16.1 24.1 0.00 0.00 0.00 44 1011.1
20260505233007 10 355 14.5 24.1 0.00 0.00 0.00 45 1011.1
20260505232929 10 302 14.5 32.2 0.00 0.00 0.00 45 1011.1
20260505232805 10 338 12.9 32.2 0.00 0.00 0.00 45 1011.1
20260505232709 10 306 11.3 32.2 0.00 0.00 0.00 45 1011.1
20260505232613 10 315 11.3 32.2 0.00 0.00 0.00 44 1011.1
20260505232515 10 331 12.9 32.2 0.00 0.00 0.00 43 1011.1
20260505232418 10 348 12.9 32.2 0.00 0.00 0.00 43 1011.0
20260505232326 10 349 14.5 32.2 0.00 0.00 0.00 43 1011.1
20260505232228 10 19 19.3 32.2 0.00 0.00 0.00 43 1011.1
20260505232109 10 351 19.3 32.2 0.00 0.00 0.00 43 1011.1
20260505232012 10 355 17.7 27.4 0.00 0.00 0.00 43 1011.0
20260505231916 10 343 17.7 27.4 0.00 0.00 0.00 44 1011.0
20260505231818 10 337 17.7 27.4 0.00 0.00 0.00 43 1011.0
20260505231742 10 345 14.5 22.5 0.00 0.00 0.00 43 1011.1
20260505231628 10 355 16.1 22.5 0.00 0.00 0.00 43 1011.0
20260505231506 10 327 12.9 22.5 0.00 0.00 0.00 44 1011.0
20260505231429 10 355 12.9 22.5 0.00 0.00 0.00 44 1011.0
20260505231311 10 351 14.5 22.5 0.00 0.00 0.00 44 1011.0
20260505231214 10 38 14.5 22.5 0.00 0.00 0.00 45 1011.0
20260505231117 10 10 12.9 22.5 0.00 0.00 0.00 45 1011.0
20260505231021 10 339 12.9 22.5 0.00 0.00 0.00 44 1011.0
20260505230907 10 23 12.9 24.1 0.00 0.00 0.00 45 1010.9
20260505230811 10 336 14.5 24.1 0.00 0.00 0.00 45 1011.0
20260505230713 10 312 14.5 24.1 0.00 0.00 0.00 45 1010.9
20260505230617 10 18 11.3 24.1 0.00 0.00 0.00 45 1010.9
20260505230520 10 297 8.0 24.1 0.00 0.00 0.00 46 1010.9
20260505230406 10 344 9.7 24.1 0.00 0.00 0.00 45 1011.0
20260505230330 10 355 14.5 24.1 0.00 0.00 0.00 45 1011.0
20260505230206 10 328 17.7 25.7 0.00 0.00 0.00 43 1011.1
20260505230109 10 355 16.1 25.7 0.00 0.00 0.00 43 1011.0
20260505230013 10 355 17.7 25.7 0.00 0.00 0.00 44 1011.0
20260505225936 10 5 17.7 25.7 0.00 0.00 0.00 44 1011.1
20260505225819 10 342 16.1 25.7 0.00 0.00 0.00 45 1011.0
20260505225705 10 360 14.5 25.7 0.00 0.00 0.00 45 1011.1
20260505225609 10 360 16.1 25.7 0.00 0.00 0.00 45 1011.0
20260505225511 10 328 17.7 25.7 0.00 0.00 0.00 45 1011.0
20260505225414 9 355 17.7 25.7 0.00 0.00 0.00 46 1011.1
20260505225318 9 355 17.7 24.1 0.00 0.00 0.00 47 1011.0
20260505225220 9 360 14.5 22.5 0.00 0.00 0.00 46 1010.9
20260505225128 9 332 9.7 20.9 0.00 0.00 0.00 48 1011.0
20260505225031 9 325 9.7 20.9 0.00 0.00 0.00 47 1011.1
20260505224906 8 321 11.3 20.9 0.00 0.00 0.00 47 1011.0
20260505224830 8 355 11.3 22.5 0.00 0.00 0.00 47 1011.0
20260505224711 8 355 11.3 22.5 0.00 0.00 0.00 47 1011.0
20260505224614 8 338 11.3 22.5 0.00 0.00 0.00 47 1011.0
20260505224537 8 319 9.7 22.5 0.00 0.00 0.00 47 1011.1
20260505224419 8 342 11.3 22.5 0.00 0.00 0.00 48 1010.9
20260505224327 8 342 12.9 22.5 0.00 0.00 0.00 47 1011.0
20260505224209 8 336 14.5 22.5 0.00 0.00 0.00 46 1011.0
20260505224112 8 339 16.1 22.5 0.00 0.00 0.00 46 1010.9
20260505224015 8 12 14.5 25.7 0.00 0.00 0.00 48 1011.0
20260505223939 9 328 11.3 25.7 0.00 0.00 0.00 47 1011.0
20260505223821 9 318 8.0 25.7 0.00 0.00 0.00 47 1011.1
20260505223744 8 287 9.7 25.7 0.00 0.00 0.00 47 1011.0
20260505223631 8 333 12.9 25.7 0.00 0.00 0.00 46 1010.9
20260505223507 8 10 16.1 25.7 0.00 0.00 0.00 46 1011.0
20260505223411 8 355 14.5 25.7 0.00 0.00 0.00 46 1011.0
20260505223334 8 12 16.1 25.7 0.00 0.00 0.00 47 1011.1
20260505223217 8 5 14.5 25.7 0.00 0.00 0.00 47 1011.0
20260505223119 8 329 12.9 25.7 0.00 0.00 0.00 48 1011.0
20260505223006 8 13 14.5 24.1 0.00 0.00 0.00 46 1011.0
20260505222929 8 336 14.5 24.1 0.00 0.00 0.00 46 1010.9
20260505222852 8 5 12.9 24.1 0.00 0.00 0.00 46 1011.0
20260505222707 8 343 14.5 24.1 0.00 0.00 0.00 46 1011.0
20260505222630 8 346 16.1 24.1 0.00 0.00 0.00 46 1011.0
20260505222506 8 342 11.3 24.1 0.00 0.00 0.00 48 1011.0
20260505222409 8 336 12.9 24.1 0.00 0.00 0.00 46 1011.0
20260505222316 8 327 16.1 24.1 0.00 0.00 0.00 46 1011.0
20260505222219 8 336 16.1 25.7 0.00 0.00 0.00 46 1011.0
20260505222122 8 342 16.1 25.7 0.00 0.00 0.00 46 1010.9
20260505222006 8 350 16.1 25.7 0.00 0.00 0.00 46 1011.0
20260505221929 8 336 16.1 25.7 0.00 0.00 0.00 46 1011.1
20260505221806 8 5 14.5 25.7 0.00 0.00 0.00 47 1011.0
20260505221713 8 5 12.9 25.7 0.00 0.00 0.00 47 1011.0
20260505221616 8 5 12.9 25.7 0.00 0.00 0.00 47 1011.1
20260505221520 8 15 14.5 27.4 0.00 0.00 0.00 47 1011.1
20260505221445 8 294 16.1 27.4 0.00 0.00 0.00 46 1011.1
20260505221326 8 311 12.9 27.4 0.00 0.00 0.00 47 1011.1
20260505221209 8 343 14.5 27.4 0.00 0.00 0.00 47 1011.1
20260505221113 8 343 16.1 27.4 0.00 0.00 0.00 46 1011.1
20260505221020 8 323 14.5 27.4 0.00 0.00 0.00 46 1011.0
20260505220923 8 328 11.3 27.4 0.00 0.00 0.00 48 1011.1
20260505220826 8 326 14.5 27.4 0.00 0.00 0.00 46 1011.0
20260505220708 8 327 17.7 27.4 0.00 0.00 0.00 46 1011.1
20260505220611 8 338 16.1 30.6 0.00 0.00 0.00 47 1011.0
20260505220514 8 355 17.7 30.6 0.00 0.00 0.00 47 1011.2
20260505220418 8 304 16.1 30.6 0.00 0.00 0.00 47 1011.1
20260505220305 8 351 12.9 30.6 0.00 0.00 0.00 47 1011.2
20260505220228 9 350 12.9 30.6 0.00 0.00 0.00 47 1011.1
20260505220105 9 349 19.3 30.6 0.00 0.00 0.00 46 1011.2
20260505220009 9 308 22.5 30.6 0.00 0.00 0.00 46 1011.2
20260505215913 9 306 17.7 30.6 0.00 0.00 0.00 46 1011.1
20260505215818 9 338 12.9 25.7 0.00 0.00 0.00 46 1011.1
20260505215745 9 5 12.9 25.7 0.00 0.00 0.00 46 1011.2
20260505215608 9 315 17.7 25.7 0.00 0.00 0.00 47 1011.2
20260505215531 9 360 17.7 25.7 0.00 0.00 0.00 47 1011.1
20260505215431 9 323 17.7 25.7 0.00 0.00 0.00 47 1011.1
20260505215313 9 350 12.9 24.1 0.00 0.00 0.00 46 1011.2
20260505215237 9 326 11.3 22.5 0.00 0.00 0.00 48 1011.1
20260505215141 9 322 11.3 22.5 0.00 0.00 0.00 47 1011.1
20260505215024 9 323 11.3 22.5 0.00 0.00 0.00 48 1011.2
20260505214913 9 337 11.3 24.1 0.00 0.00 0.00 47 1011.2
20260505214837 9 339 11.3 27.4 0.00 0.00 0.00 47 1011.2
20260505214720 9 342 11.3 27.4 0.00 0.00 0.00 49 1011.2
20260505214606 9 293 9.7 27.4 0.00 0.00 0.00 48 1011.2
20260505214530 9 281 9.7 27.4 0.00 0.00 0.00 47 1011.2
20260505214406 9 315 12.9 27.4 0.00 0.00 0.00 47 1011.2
20260505214331 9 339 16.1 30.6 0.00 0.00 0.00 46 1011.2
20260505214239 9 319 17.7 30.6 0.00 0.00 0.00 46 1011.2
20260505214121 9 343 19.3 30.6 0.00 0.00 0.00 45 1011.2
20260505214026 9 342 16.1 30.6 0.00 0.00 0.00 47 1011.1
20260505213908 9 297 14.5 30.6 0.00 0.00 0.00 47 1011.2
20260505213833 9 336 17.7 30.6 0.00 0.00 0.00 47 1011.2
20260505213716 9 335 17.7 30.6 0.00 0.00 0.00 46 1011.2
20260505213620 9 328 20.9 30.6 0.00 0.00 0.00 47 1011.2
20260505213510 9 303 16.1 30.6 0.00 0.00 0.00 47 1011.2
20260505213414 9 314 16.1 30.6 0.00 0.00 0.00 46 1011.2
20260505213318 9 343 19.3 30.6 0.00 0.00 0.00 46 1011.1
20260505213224 9 11 17.7 30.6 0.00 0.00 0.00 45 1011.2
20260505213128 9 355 12.9 25.7 0.00 0.00 0.00 47 1011.2
20260505213011 9 288 14.5 25.7 0.00 0.00 0.00 47 1011.3
20260505212920 9 344 14.5 25.7 0.00 0.00 0.00 46 1011.3
20260505212824 9 15 12.9 25.7 0.00 0.00 0.00 47 1011.2
20260505212728 9 285 16.1 25.7 0.00 0.00 0.00 46 1011.2
20260505212605 9 340 16.1 25.7 0.00 0.00 0.00 49 1011.3
20260505212530 9 329 11.3 24.1 0.00 0.00 0.00 49 1011.2
20260505212413 9 5 11.3 24.1 0.00 0.00 0.00 48 1011.2
20260505212318 9 355 12.9 24.1 0.00 0.00 0.00 48 1011.3
20260505212206 9 327 12.9 24.1 0.00 0.00 0.00 49 1011.2
20260505212131 9 302 11.3 24.1 0.00 0.00 0.00 49 1011.2
20260505212007 9 350 8.0 24.1 0.00 0.00 0.00 47 1011.1
20260505211911 9 315 12.9 24.1 0.00 0.00 0.00 47 1011.2
20260505211816 9 330 16.1 24.1 0.00 0.00 0.00 46 1011.2
20260505211704 9 313 16.1 25.7 0.00 0.00 0.00 48 1011.1
20260505211628 9 329 14.5 25.7 0.00 0.00 0.00 48 1011.1
20260505211505 9 316 11.3 25.7 0.00 0.00 0.00 48 1011.3
20260505211411 9 317 11.3 25.7 0.00 0.00 0.00 46 1011.3
20260505211335 9 341 12.9 25.7 0.00 0.00 0.00 46 1011.2
20260505211216 9 313 11.3 25.7 0.00 0.00 0.00 46 1011.3
20260505211121 9 344 11.3 25.7 0.00 0.00 0.00 47 1011.2
20260505211011 10 349 14.5 25.7 0.00 0.00 0.00 47 1011.3
20260505210915 10 355 14.5 25.7 0.00 0.00 0.00 46 1011.3
20260505210819 10 317 12.9 27.4 0.00 0.00 0.00 47 1011.3
20260505210724 10 325 9.7 27.4 0.00 0.00 0.00 46 1011.3
20260505210608 10 324 11.3 27.4 0.00 0.00 0.00 47 1011.3
20260505210510 10 330 11.3 27.4 0.00 0.00 0.00 46 1011.3
20260505210419 10 17 11.3 27.4 0.00 0.00 0.00 45 1011.4
20260505210323 10 13 11.3 27.4 0.00 0.00 0.00 47 1011.3
20260505210227 10 12 16.1 29.0 0.00 0.00 0.00 46 1011.3
20260505210110 10 344 17.7 29.0 0.00 0.00 0.00 45 1011.3
20260505210015 10 335 17.7 29.0 0.00 0.00 0.00 47 1011.3
20260505205918 10 306 17.7 29.0 0.00 0.00 0.00 46 1011.3
20260505205807 10 355 14.5 29.0 0.00 0.00 0.00 45 1011.4
20260505205712 10 332 14.5 29.0 0.00 0.00 0.00 46 1011.3
20260505205615 10 355 17.7 29.0 0.00 0.00 0.00 47 1011.3
20260505205541 10 333 17.7 29.0 0.00 0.00 0.00 46 1011.3
20260505205442 10 338 17.7 29.0 0.00 0.00 0.00 47 1011.2
20260505205326 10 321 17.7 27.4 0.00 0.00 0.00 47 1011.3
20260505205210 10 344 17.7 27.4 0.00 0.00 0.00 46 1011.2
20260505205118 10 323 14.5 27.4 0.00 0.00 0.00 45 1011.3
20260505205023 10 13 12.9 27.4 0.00 0.00 0.00 46 1011.3
20260505204906 10 5 14.5 27.4 0.00 0.00 0.00 46 1011.3
20260505204830 10 9 16.1 27.4 0.00 0.00 0.00 47 1011.3
20260505204707 10 335 16.1 27.4 0.00 0.00 0.00 46 1011.3
20260505204611 9 21 14.5 27.4 0.00 0.00 0.00 47 1011.3
20260505204518 9 344 14.5 27.4 0.00 0.00 0.00 46 1011.2
20260505204423 10 324 14.5 27.4 0.00 0.00 0.00 47 1011.3
20260505204308 9 19 12.9 32.2 0.00 0.00 0.00 46 1011.3
20260505204211 9 350 14.5 32.2 0.00 0.00 0.00 46 1011.3
20260505204115 9 338 17.7 32.2 0.00 0.00 0.00 46 1011.4
20260505204020 9 5 16.1 32.2 0.00 0.00 0.00 46 1011.5
20260505203930 9 321 9.7 32.2 0.00 0.00 0.00 48 1011.4
20260505203806 9 355 12.9 32.2 0.00 0.00 0.00 46 1011.4
20260505203730 9 355 16.1 32.2 0.00 0.00 0.00 46 1011.3
20260505203607 9 355 22.5 32.2 0.00 0.00 0.00 44 1011.3
20260505203512 10 333 22.5 32.2 0.00 0.00 0.00 45 1011.4
20260505203436 10 355 17.7 27.4 0.00 0.00 0.00 46 1011.3
20260505203319 10 338 17.7 27.4 0.00 0.00 0.00 47 1011.2
20260505203228 10 355 17.7 27.4 0.00 0.00 0.00 47 1011.3
20260505203105 10 290 17.7 27.4 0.00 0.00 0.00 49 1011.3
20260505203009 10 301 19.3 27.4 0.00 0.00 0.00 47 1011.3
20260505202913 10 302 17.7 27.4 0.00 0.00 0.00 48 1011.3
20260505202817 10 300 17.7 24.1 0.00 0.00 0.00 48 1011.3
20260505202704 10 11 16.1 27.4 0.00 0.00 0.00 46 1011.4
20260505202609 10 346 12.9 27.4 0.00 0.00 0.00 49 1011.4
20260505202513 10 317 11.3 27.4 0.00 0.00 0.00 48 1011.5
20260505202418 10 333 12.9 27.4 0.00 0.00 0.00 47 1011.4
20260505202322 10 336 12.9 27.4 0.00 0.00 0.00 47 1011.4
20260505202226 10 5 12.9 27.4 0.00 0.00 0.00 46 1011.4
20260505202108 10 344 14.5 32.2 0.00 0.00 0.00 45 1011.5
20260505202017 10 360 17.7 32.2 0.00 0.00 0.00 45 1011.4
20260505201942 10 323 16.1 32.2 0.00 0.00 0.00 46 1011.3
20260505201807 10 319 14.5 32.2 0.00 0.00 0.00 46 1011.5
20260505201710 10 347 14.5 32.2 0.00 0.00 0.00 45 1011.4
20260505201614 10 9 12.9 32.2 0.00 0.00 0.00 46 1011.4
20260505201519 10 33 17.7 32.2 0.00 0.00 0.00 49 1011.5
20260505201407 10 317 17.7 32.2 0.00 0.00 0.00 46 1011.3
20260505201311 10 292 14.5 32.2 0.00 0.00 0.00 52 1011.4
20260505201216 10 291 12.9 29.0 0.00 0.00 0.00 47 1011.4
20260505201141 10 312 11.3 29.0 0.00 0.00 0.00 48 1011.4
20260505201023 10 328 9.7 30.6 0.00 0.00 0.00 47 1011.4
20260505200927 10 300 16.1 30.6 0.00 0.00 0.00 46 1011.6
20260505200829 10 323 16.1 30.6 0.00 0.00 0.00 45 1011.5
20260505200717 10 320 12.9 30.6 0.00 0.00 0.00 48 1011.4
20260505200619 10 340 9.7 30.6 0.00 0.00 0.00 47 1011.6
20260505200504 10 351 11.3 30.6 0.00 0.00 0.00 47 1011.3
20260505200408 10 348 16.1 30.6 0.00 0.00 0.00 46 1011.4
20260505200312 10 355 16.1 30.6 0.00 0.00 0.00 46 1011.4
20260505200217 10 328 12.9 30.6 0.00 0.00 0.00 47 1011.4
20260505200128 10 11 11.3 24.1 0.00 0.00 0.00 48 1011.5
20260505200030 10 355 11.3 24.1 0.00 0.00 0.00 47 1011.4
20260505195914 10 343 11.3 27.4 0.00 0.00 0.00 47 1011.4
20260505195819 10 296 12.9 27.4 0.00 0.00 0.00 45 1011.3
20260505195723 10 355 14.5 27.4 0.00 0.00 0.00 46 1011.4
20260505195628 10 360 14.5 27.4 0.00 0.00 0.00 47 1011.4
20260505195505 10 34 11.3 27.4 0.00 0.00 0.00 49 1011.4
20260505195413 9 325 11.3 27.4 0.00 0.00 0.00 47 1011.3
20260505195318 9 347 14.5 27.4 0.00 0.00 0.00 47 1011.4
20260505195223 9 347 16.1 27.4 0.00 0.00 0.00 46 1011.4
20260505195108 9 303 14.5 25.7 0.00 0.00 0.00 47 1011.4
20260505195012 9 325 17.7 25.7 0.00 0.00 0.00 47 1011.4
20260505194916 9 324 14.5 25.7 0.00 0.00 0.00 47 1011.4
20260505194805 9 360 12.9 25.7 0.00 0.00 0.00 49 1011.4
20260505194709 9 355 12.9 25.7 0.00 0.00 0.00 47 1011.4
20260505194614 9 27 11.3 25.7 0.00 0.00 0.00 47 1011.3
20260505194519 8 17 11.3 25.7 0.00 0.00 0.00 47 1011.4
20260505194423 8 355 14.5 25.7 0.00 0.00 0.00 47 1011.4
20260505194312 8 329 14.5 32.2 0.00 0.00 0.00 47 1011.3
20260505194214 8 319 12.9 32.2 0.00 0.00 0.00 48 1011.4
20260505194120 8 315 12.9 32.2 0.00 0.00 0.00 46 1011.4
20260505194024 8 308 14.5 32.2 0.00 0.00 0.00 46 1011.3
20260505193928 9 298 16.1 32.2 0.00 0.00 0.00 45 1011.2
20260505193811 9 342 16.1 32.2 0.00 0.00 0.00 47 1011.4
20260505193735 9 339 16.1 32.2 0.00 0.00 0.00 47 1011.4
20260505193623 8 9 19.3 32.2 0.00 0.00 0.00 46 1011.4
20260505193508 9 327 17.7 32.2 0.00 0.00 0.00 46 1011.3
20260505193412 9 333 11.3 32.2 0.00 0.00 0.00 49 1011.4
20260505193316 9 325 8.0 30.6 0.00 0.00 0.00 48 1011.3
20260505193221 9 342 9.7 30.6 0.00 0.00 0.00 47 1011.3
20260505193106 9 15 16.1 30.6 0.00 0.00 0.00 45 1011.4
20260505193014 9 355 17.7 30.6 0.00 0.00 0.00 45 1011.3
20260505192918 9 13 17.7 30.6 0.00 0.00 0.00 47 1011.4
20260505192821 9 355 14.5 30.6 0.00 0.00 0.00 45 1011.4
20260505192706 9 309 17.7 30.6 0.00 0.00 0.00 46 1011.3
20260505192630 9 360 17.7 30.6 0.00 0.00 0.00 45 1011.4
20260505192507 9 344 19.3 30.6 0.00 0.00 0.00 44 1011.4
20260505192415 9 5 16.1 25.7 0.00 0.00 0.00 45 1011.4
20260505192339 9 351 14.5 24.1 0.00 0.00 0.00 46 1011.4
20260505192222 9 336 14.5 24.1 0.00 0.00 0.00 46 1011.4
20260505192126 9 16 12.9 24.1 0.00 0.00 0.00 47 1011.4
20260505192010 9 355 12.9 24.1 0.00 0.00 0.00 46 1011.4
20260505191915 10 28 11.3 24.1 0.00 0.00 0.00 47 1011.4
20260505191819 10 59 12.9 24.1 0.00 0.00 0.00 46 1011.4
20260505191728 10 324 11.3 24.1 0.00 0.00 0.00 46 1011.4
20260505191605 10 355 9.7 24.1 0.00 0.00 0.00 47 1011.5
20260505191509 10 355 14.5 24.1 0.00 0.00 0.00 46 1011.5
20260505191433 10 13 16.1 24.1 0.00 0.00 0.00 48 1011.4
20260505191336 9 19 14.5 24.1 0.00 0.00 0.00 49 1011.4
20260505191218 9 342 11.3 24.1 0.00 0.00 0.00 46 1011.4
20260505191106 9 15 9.7 24.1 0.00 0.00 0.00 47 1011.5
20260505191009 9 355 9.7 24.1 0.00 0.00 0.00 47 1011.4
20260505190914 9 360 11.3 29.0 0.00 0.00 0.00 48 1011.5
20260505190818 9 346 12.9 29.0 0.00 0.00 0.00 45 1011.4
20260505190742 9 301 16.1 29.0 0.00 0.00 0.00 47 1011.4
20260505190606 9 305 16.1 29.0 0.00 0.00 0.00 47 1011.4
20260505190530 8 286 11.3 29.0 0.00 0.00 0.00 48 1011.5
20260505190416 8 17 12.9 29.0 0.00 0.00 0.00 48 1011.4
20260505190319 8 19 12.9 29.0 0.00 0.00 0.00 48 1011.4
20260505190204 8 335 9.7 29.0 0.00 0.00 0.00 47 1011.5
20260505190128 8 344 16.1 29.0 0.00 0.00 0.00 48 1011.5
20260505190030 8 27 17.7 29.0 0.00 0.00 0.00 45 1011.5
20260505185905 8 12 17.7 27.4 0.00 0.00 0.00 46 1011.7
20260505185809 8 348 16.1 32.2 0.00 0.00 0.00 46 1011.7
20260505185718 8 360 14.5 38.6 0.00 0.00 0.00 47 1011.6
20260505185623 8 347 12.9 38.6 0.00 0.00 0.00 49 1011.5
20260505185527 8 317 12.9 38.6 0.00 0.00 0.00 50 1011.7
20260505185405 8 291 12.9 38.6 0.00 0.00 0.00 48 1011.6
20260505185330 8 306 14.5 38.6 0.00 0.00 0.00 48 1011.5
20260505185207 8 309 19.3 38.6 0.00 0.00 0.00 46 1011.5
20260505185114 8 305 20.9 38.6 0.00 0.00 0.00 45 1011.6
20260505185039 8 292 22.5 38.6 0.00 0.00 0.00 46 1011.7
20260505184923 8 355 24.1 38.6 0.00 0.00 0.00 46 1011.6
20260505184808 9 288 19.3 29.0 0.00 0.00 0.00 46 1011.5
20260505184712 9 313 17.7 29.0 0.00 0.00 0.00 46 1011.5
20260505184616 9 327 16.1 29.0 0.00 0.00 0.00 48 1011.4
20260505184525 9 45 14.5 29.0 0.00 0.00 0.00 46 1011.5
20260505184409 9 355 12.9 29.0 0.00 0.00 0.00 46 1011.4
20260505184313 9 355 11.3 35.4 0.00 0.00 0.00 45 1011.4
20260505184238 9 337 12.9 35.4 0.00 0.00 0.00 45 1011.5
20260505184121 9 339 14.5 35.4 0.00 0.00 0.00 45 1011.5
20260505184006 9 306 17.7 35.4 0.00 0.00 0.00 45 1011.5
20260505183911 9 334 17.7 35.4 0.00 0.00 0.00 45 1011.6
20260505183819 9 346 16.1 35.4 0.00 0.00 0.00 46 1011.6
20260505183723 9 333 16.1 35.4 0.00 0.00 0.00 47 1011.6
20260505183609 9 11 19.3 35.4 0.00 0.00 0.00 46 1011.5
20260505183512 9 311 17.7 35.4 0.00 0.00 0.00 49 1011.6
20260505183415 9 327 16.1 27.4 0.00 0.00 0.00 46 1011.4
20260505183320 9 331 17.7 27.4 0.00 0.00 0.00 45 1011.6
20260505183249 8 360 17.7 25.7 0.00 0.00 0.00 47 1011.6
20260505183105 8 5 14.5 25.7 0.00 0.00 0.00 46 1011.6
20260505183030 8 337 14.5 25.7 0.00 0.00 0.00 46 1011.6
20260505182907 8 13 14.5 25.7 0.00 0.00 0.00 47 1011.5
20260505182812 8 336 14.5 25.7 0.00 0.00 0.00 46 1011.4
20260505182716 8 311 16.1 25.7 0.00 0.00 0.00 46 1011.6
20260505182623 8 313 12.9 25.7 0.00 0.00 0.00 48 1011.5
20260505182508 8 16 11.3 25.7 0.00 0.00 0.00 47 1011.5
20260505182432 8 333 14.5 25.7 0.00 0.00 0.00 50 1011.4
20260505182315 8 342 16.1 25.7 0.00 0.00 0.00 48 1011.5
20260505182239 8 310 16.1 25.7 0.00 0.00 0.00 47 1011.4
20260505182123 8 317 14.5 24.1 0.00 0.00 0.00 46 1011.4
20260505182023 8 329 14.5 24.1 0.00 0.00 0.00 48 1011.4
20260505181932 8 296 16.1 24.1 0.00 0.00 0.00 47 1011.4
20260505181814 8 332 16.1 24.1 0.00 0.00 0.00 49 1011.4
20260505181717 8 313 16.1 24.1 0.00 0.00 0.00 48 1011.6
20260505181622 8 325 16.1 24.1 0.00 0.00 0.00 47 1011.6
20260505181526 8 330 16.1 25.7 0.00 0.00 0.00 48 1011.5
20260505181410 8 329 14.5 25.7 0.00 0.00 0.00 47 1011.5
20260505181315 8 346 11.3 25.7 0.00 0.00 0.00 48 1011.4
20260505181244 8 345 12.9 25.7 0.00 0.00 0.00 48 1011.4
20260505181128 8 360 14.5 25.7 0.00 0.00 0.00 48 1011.6
20260505181051 8 30 16.1 25.7 0.00 0.00 0.00 50 1011.4
20260505180907 8 338 14.5 25.7 0.00 0.00 0.00 48 1011.4
20260505180811 8 351 14.5 25.7 0.00 0.00 0.00 49 1011.4
20260505180716 8 348 12.9 25.7 0.00 0.00 0.00 49 1011.5
20260505180605 8 5 9.7 24.1 0.00 0.00 0.00 48 1011.4
20260505180509 8 314 12.9 24.1 0.00 0.00 0.00 47 1011.3
20260505180431 8 328 16.1 24.1 0.00 0.00 0.00 48 1011.3
20260505180309 8 294 14.5 24.1 0.00 0.00 0.00 48 1011.4
20260505180214 8 326 12.9 24.1 0.00 0.00 0.00 48 1011.4
20260505180116 8 348 11.3 27.4 0.00 0.00 0.00 48 1011.4
20260505180021 8 334 11.3 27.4 0.00 0.00 0.00 48 1011.4
20260505175930 8 338 14.5 27.4 0.00 0.00 0.00 47 1011.5
20260505175807 8 345 14.5 30.6 0.00 0.00 0.00 47 1011.5
20260505175731 8 348 16.1 30.6 0.00 0.00 0.00 46 1011.4
20260505175611 8 333 17.7 30.6 0.00 0.00 0.00 47 1011.3
20260505175512 8 344 19.3 30.6 0.00 0.00 0.00 46 1011.4
20260505175413 8 339 19.3 32.2 0.00 0.00 0.00 45 1011.4
20260505175315 8 355 17.7 32.2 0.00 0.00 0.00 47 1011.4
20260505175223 8 318 16.1 32.2 0.00 0.00 0.00 48 1011.5
20260505175123 8 325 19.3 32.2 0.00 0.00 0.00 47 1011.5
20260505175026 8 330 22.5 32.2 0.00 0.00 0.00 46 1011.4
20260505174907 8 360 20.9 32.2 0.00 0.00 0.00 47 1011.4
20260505174811 8 5 22.5 32.2 0.00 0.00 0.00 47 1011.5
20260505174716 8 340 22.5 32.2 0.00 0.00 0.00 48 1011.7
20260505174645 8 355 20.9 32.2 0.00 0.00 0.00 47 1011.4
20260505174548 8 20 20.9 32.2 0.00 0.00 0.00 47 1011.4
20260505174405 8 360 20.9 30.6 0.00 0.00 0.00 47 1011.4
20260505174309 8 38 19.3 30.6 0.00 0.00 0.00 48 1011.4
20260505174214 8 346 16.1 30.6 0.00 0.00 0.00 47 1011.6
20260505174117 8 329 17.7 30.6 0.00 0.00 0.00 47 1011.6
20260505174021 8 27 20.9 30.6 0.00 0.00 0.00 46 1011.6
20260505173926 8 328 20.9 30.6 0.00 0.00 0.00 45 1011.6
20260505173808 8 336 16.1 27.4 0.00 0.00 0.00 47 1011.5
20260505173712 8 11 14.5 20.9 0.00 0.00 0.00 46 1011.4
20260505173615 8 303 12.9 24.1 0.00 0.00 0.00 47 1011.4
20260505173518 8 313 11.3 24.1 0.00 0.00 0.00 49 1011.3
20260505173441 8 327 12.9 24.1 0.00 0.00 0.00 48 1011.3
20260505173343 8 309 12.9 24.1 0.00 0.00 0.00 49 1011.3
20260505173250 8 301 11.3 24.1 0.00 0.00 0.00 47 1011.3
20260505173107 8 12 9.7 25.7 0.00 0.00 0.00 48 1011.3
20260505173010 8 38 12.9 25.7 0.00 0.00 0.00 48 1011.4
20260505172915 8 32 16.1 25.7 0.00 0.00 0.00 47 1011.3
20260505172839 8 345 12.9 25.7 0.00 0.00 0.00 47 1011.4
20260505172721 8 5 6.4 25.7 0.00 0.00 0.00 49 1011.3
20260505172609 8 194 8.0 25.7 0.00 0.00 0.00 47 1011.3
20260505172513 8 355 12.9 25.7 0.00 0.00 0.00 49 1011.3
20260505172418 8 5 12.9 25.7 0.00 0.00 0.00 48 1011.3
20260505172322 8 337 12.9 25.7 0.00 0.00 0.00 51 1011.3
20260505172206 8 284 14.5 25.7 0.00 0.00 0.00 48 1011.3
20260505172110 8 340 14.5 25.7 0.00 0.00 0.00 47 1011.3
20260505172018 8 346 12.9 25.7 0.00 0.00 0.00 48 1011.3
20260505171921 8 329 12.9 25.7 0.00 0.00 0.00 48 1011.4
20260505171824 8 325 16.1 25.7 0.00 0.00 0.00 47 1011.4
20260505171728 8 347 16.1 25.7 0.00 0.00 0.00 47 1011.4
20260505171610 8 355 14.5 25.7 0.00 0.00 0.00 52 1011.5
20260505171513 8 292 11.3 25.7 0.00 0.00 0.00 50 1011.4
20260505171417 8 20 11.3 25.7 0.00 0.00 0.00 50 1011.6
20260505171305 8 331 12.9 25.7 0.00 0.00 0.00 50 1011.5
20260505171208 8 15 12.9 25.7 0.00 0.00 0.00 50 1011.5
20260505171113 8 16 12.9 25.7 0.00 0.00 0.00 48 1011.5
20260505171037 8 304 16.1 27.4 0.00 0.00 0.00 49 1011.5
20260505170920 8 322 14.5 27.4 0.00 0.00 0.00 48 1011.6
20260505170844 8 322 12.9 29.0 0.00 0.00 0.00 50 1011.5
20260505170710 8 303 14.5 29.0 0.00 0.00 0.00 48 1011.5
20260505170615 8 360 16.1 29.0 0.00 0.00 0.00 49 1011.6
20260505170519 8 336 16.1 29.0 0.00 0.00 0.00 48 1011.6
20260505170442 8 312 14.5 29.0 0.00 0.00 0.00 49 1011.5
20260505170325 8 314 16.1 30.6 0.00 0.00 0.00 48 1011.4
20260505170228 8 308 17.7 30.6 0.00 0.00 0.00 49 1011.5
20260505170105 8 333 17.7 30.6 0.00 0.00 0.00 48 1011.6
20260505170012 8 339 14.5 30.6 0.00 0.00 0.00 48 1011.6
20260505165914 8 325 14.5 30.6 0.00 0.00 0.00 47 1011.4
20260505165816 8 355 14.5 30.6 0.00 0.00 0.00 49 1011.6
20260505165740 8 314 16.1 30.6 0.00 0.00 0.00 50 1011.5
20260505165642 8 314 20.9 30.6 0.00 0.00 0.00 49 1011.7
20260505165505 8 345 14.5 30.6 0.00 0.00 0.00 51 1011.7
20260505165409 7 18 9.7 24.1 0.00 0.00 0.00 52 1011.6
20260505165317 7 11 11.3 20.9 0.00 0.00 0.00 50 1011.5
20260505165220 7 346 9.7 20.9 0.00 0.00 0.00 52 1011.6
20260505165144 7 355 8.0 20.9 0.00 0.00 0.00 52 1011.7
20260505165028 7 325 11.3 20.9 0.00 0.00 0.00 51 1011.7
20260505164904 7 5 14.5 20.9 0.00 0.00 0.00 49 1011.6
20260505164809 7 355 12.9 20.9 0.00 0.00 0.00 50 1011.6
20260505164717 7 49 11.3 20.9 0.00 0.00 0.00 50 1011.7
20260505164620 7 15 12.9 20.9 0.00 0.00 0.00 50 1011.6
20260505164523 7 317 14.5 20.9 0.00 0.00 0.00 49 1011.7
20260505164428 7 328 14.5 20.9 0.00 0.00 0.00 51 1011.6
20260505164305 7 335 8.0 20.9 0.00 0.00 0.00 52 1011.6
20260505164210 7 350 4.8 22.5 0.00 0.00 0.00 52 1011.6
20260505164117 7 309 6.4 24.1 0.00 0.00 0.00 53 1011.6
20260505164021 7 294 9.7 24.1 0.00 0.00 0.00 51 1011.6
20260505163945 7 325 9.7 24.1 0.00 0.00 0.00 51 1011.6
20260505163808 7 306 9.7 24.1 0.00 0.00 0.00 49 1011.6
20260505163711 7 5 11.3 24.1 0.00 0.00 0.00 50 1011.6
20260505163616 7 5 9.7 24.1 0.00 0.00 0.00 51 1011.6
20260505163520 7 22 12.9 24.1 0.00 0.00 0.00 51 1011.6
20260505163427 7 355 14.5 24.1 0.00 0.00 0.00 50 1011.6
20260505163329 7 355 9.7 24.1 0.00 0.00 0.00 52 1011.7
20260505163213 7 314 8.0 20.9 0.00 0.00 0.00 52 1011.6
20260505163118 7 334 12.9 25.7 0.00 0.00 0.00 50 1011.5
20260505163022 7 344 11.3 30.6 0.00 0.00 0.00 52 1011.6
20260505162906 7 331 9.7 30.6 0.00 0.00 0.00 51 1011.6
20260505162830 7 342 9.7 30.6 0.00 0.00 0.00 51 1011.5
20260505162717 7 9 9.7 30.6 0.00 0.00 0.00 50 1011.4
20260505162622 7 355 9.7 30.6 0.00 0.00 0.00 49 1011.6
20260505162526 7 40 11.3 30.6 0.00 0.00 0.00 50 1011.4
20260505162409 7 315 16.1 30.6 0.00 0.00 0.00 50 1011.5
20260505162332 7 10 20.9 30.6 0.00 0.00 0.00 48 1011.5
20260505162212 8 17 22.5 30.6 0.00 0.00 0.00 48 1011.4
20260505162117 8 347 19.3 30.6 0.00 0.00 0.00 49 1011.2
20260505162005 8 351 12.9 29.0 0.00 0.00 0.00 50 1011.3
20260505161909 8 351 14.5 30.6 0.00 0.00 0.00 51 1011.4
20260505161833 8 53 14.5 32.2 0.00 0.00 0.00 49 1011.5
20260505161716 8 51 14.5 32.2 0.00 0.00 0.00 52 1011.4
20260505161619 8 345 14.5 32.2 0.00 0.00 0.00 50 1011.4
20260505161522 8 23 14.5 32.2 0.00 0.00 0.00 49 1011.5
20260505161429 8 56 12.9 32.2 0.00 0.00 0.00 50 1011.4
20260505161352 8 348 16.1 32.2 0.00 0.00 0.00 49 1011.7
20260505161207 8 314 22.5 32.2 0.00 0.00 0.00 50 1011.6
20260505161110 8 350 24.1 32.2 0.00 0.00 0.00 49 1011.4
20260505161033 8 32 19.3 35.4 0.00 0.00 0.00 52 1011.8
20260505160915 7 360 12.9 35.4 0.00 0.00 0.00 52 1011.5
20260505160818 7 35 12.9 35.4 0.00 0.00 0.00 54 1011.5
20260505160706 7 20 14.5 35.4 0.00 0.00 0.00 52 1011.8
20260505160628 7 355 17.7 35.4 0.00 0.00 0.00 53 1011.4
20260505160531 7 319 19.3 35.4 0.00 0.00 0.00 50 1011.6
20260505160406 7 355 22.5 35.4 0.00 0.00 0.00 50 1011.7
20260505160309 7 321 27.4 35.4 0.00 0.00 0.00 50 1011.4
20260505160233 7 320 24.1 35.4 0.00 0.00 0.00 53 1011.3
20260505160114 7 317 16.1 30.6 0.00 0.00 0.00 53 1011.2